| time (UTC) | temp F | wind direction | speed knots | gust knots | rain 1hr in | rain 24hr in | rain mn in | humidity % | barometer mb |
| 20260905223530 | 64 | 277 | 2.6 | 5.2 | 0.00 | 0.20 | 0.00 | 76 | 1024.3 |
| 20260905223429 | 64 | 277 | 2.6 | 5.2 | 0.00 | 0.20 | 0.00 | 76 | 1024.3 |
| 20260905223259 | 64 | 277 | 2.6 | 5.2 | 0.00 | 0.20 | 0.00 | 75 | 1024.3 |
| 20260905223140 | 64 | 277 | 2.6 | 5.2 | 0.00 | 0.20 | 0.00 | 76 | 1024.2 |
| 20260905223042 | 64 | 277 | 2.6 | 5.2 | 0.00 | 0.20 | 0.00 | 76 | 1024.3 |
| 20260905223015 | 63 | 277 | 2.6 | 5.2 | 0.00 | 0.04 | 0.00 | 76 | 1023.3 |
| 20260905222939 | 64 | 277 | 2.6 | 5.2 | 0.00 | 0.20 | 0.00 | 76 | 1024.2 |
| 20260905222838 | 64 | 277 | 1.7 | 2.6 | 0.00 | 0.20 | 0.00 | 76 | 1024.2 |
| 20260905222740 | 64 | 277 | 1.7 | 2.6 | 0.00 | 0.20 | 0.00 | 76 | 1024.1 |
| 20260905222633 | 64 | 277 | 1.7 | 2.6 | 0.00 | 0.20 | 0.00 | 76 | 1024.2 |
| 20260905222536 | 64 | 277 | 1.7 | 2.6 | 0.00 | 0.20 | 0.00 | 76 | 1024.1 |
| 20260905222435 | 64 | 277 | 0.9 | 3.5 | 0.00 | 0.20 | 0.00 | 75 | 1024.1 |
| 20260905222245 | 64 | 277 | 1.7 | 3.5 | 0.00 | 0.20 | 0.00 | 75 | 1024.1 |
| 20260905222150 | 64 | 277 | 1.7 | 3.5 | 0.00 | 0.20 | 0.00 | 75 | 1024.1 |
| 20260905222053 | 64 | 277 | 1.7 | 3.5 | 0.00 | 0.20 | 0.00 | 75 | 1024.1 |
| 20260905222023 | 63 | 277 | 0.9 | 3.5 | 0.00 | 0.04 | 0.00 | 75 | 1023.2 |
| 20260905221926 | 64 | 277 | 1.7 | 5.2 | 0.00 | 0.20 | 0.00 | 75 | 1024.0 |
| 20260905221825 | 64 | 277 | 2.6 | 5.2 | 0.00 | 0.20 | 0.00 | 75 | 1024.0 |
| 20260905221706 | 64 | 277 | 2.6 | 5.2 | 0.00 | 0.20 | 0.00 | 75 | 1024.0 |
| 20260905221637 | 63 | 277 | 1.7 | 5.2 | 0.00 | 0.04 | 0.00 | 75 | 1023.1 |
| 20260905221558 | 64 | 277 | 1.7 | 5.2 | 0.00 | 0.20 | 0.00 | 76 | 1024.0 |
| 20260905221503 | 64 | 277 | 1.7 | 5.2 | 0.00 | 0.20 | 0.00 | 75 | 1023.9 |
| 20260905221402 | 64 | 277 | 1.7 | 5.2 | 0.00 | 0.20 | 0.00 | 75 | 1024.0 |
| 20260905221233 | 64 | 277 | 1.7 | 5.2 | 0.00 | 0.20 | 0.00 | 75 | 1023.9 |
| 20260905221134 | 64 | 277 | 2.6 | 5.2 | 0.00 | 0.20 | 0.00 | 76 | 1023.9 |
| 20260905221015 | 64 | 277 | 2.6 | 3.5 | 0.00 | 0.20 | 0.00 | 75 | 1023.9 |
| 20260905220843 | 64 | 277 | 1.7 | 5.2 | 0.00 | 0.20 | 0.00 | 75 | 1024.0 |
| 20260905220746 | 64 | 277 | 1.7 | 5.2 | 0.00 | 0.20 | 0.00 | 75 | 1024.0 |
| 20260905220651 | 64 | 277 | 1.7 | 5.2 | 0.00 | 0.20 | 0.00 | 75 | 1023.9 |
| 20260905220555 | 64 | 277 | 1.7 | 5.2 | 0.00 | 0.04 | 0.00 | 75 | 1022.9 |
| 20260905220525 | 64 | 277 | 2.6 | 6.1 | 0.00 | 0.20 | 0.00 | 75 | 1023.9 |
| 20260905220423 | 64 | 277 | 2.6 | 6.1 | 0.00 | 0.20 | 0.00 | 75 | 1023.9 |
| 20260905220304 | 64 | 277 | 2.6 | 6.1 | 0.00 | 0.20 | 0.00 | 75 | 1023.9 |
| 20260905220154 | 64 | 277 | 2.6 | 6.1 | 0.00 | 0.20 | 0.00 | 75 | 1023.9 |
| 20260905220057 | 64 | 277 | 3.5 | 6.1 | 0.00 | 0.20 | 0.00 | 75 | 1023.9 |
| 20260905215943 | 64 | 277 | 3.5 | 6.1 | 0.00 | 0.20 | 0.00 | 75 | 1023.9 |
| 20260905215833 | 64 | 277 | 3.5 | 6.1 | 0.00 | 0.20 | 0.00 | 76 | 1023.9 |
| 20260905215735 | 64 | 277 | 3.5 | 6.1 | 0.00 | 0.20 | 0.00 | 76 | 1023.9 |
| 20260905215616 | 64 | 277 | 3.5 | 6.1 | 0.00 | 0.20 | 0.00 | 76 | 1023.9 |
| 20260905215545 | 64 | 277 | 2.6 | 5.2 | 0.00 | 0.04 | 0.00 | 76 | 1022.9 |
| 20260905215510 | 64 | 277 | 3.5 | 5.2 | 0.00 | 0.20 | 0.00 | 76 | 1023.8 |
| 20260905215408 | 64 | 277 | 3.5 | 6.1 | 0.00 | 0.20 | 0.04 | 76 | 1023.9 |
| 20260905215307 | 64 | 277 | 3.5 | 6.1 | 0.00 | 0.20 | 0.04 | 76 | 1023.8 |
| 20260905215201 | 64 | 277 | 3.5 | 6.1 | 0.00 | 0.20 | 0.04 | 76 | 1023.8 |
| 20260905215104 | 64 | 277 | 2.6 | 6.1 | 0.00 | 0.20 | 0.04 | 76 | 1023.9 |
| 20260905214943 | 64 | 277 | 2.6 | 6.1 | 0.00 | 0.20 | 0.04 | 76 | 1023.8 |
| 20260905214832 | 64 | 277 | 2.6 | 6.1 | 0.00 | 0.20 | 0.04 | 76 | 1023.8 |
| 20260905214714 | 64 | 277 | 3.5 | 6.1 | 0.00 | 0.20 | 0.04 | 76 | 1023.8 |
| 20260905214614 | 64 | 277 | 3.5 | 6.1 | 0.00 | 0.20 | 0.04 | 76 | 1023.8 |
| 20260905214548 | 63 | 277 | 2.6 | 6.1 | 0.00 | 0.04 | 0.04 | 76 | 1022.9 |
| 20260905214513 | 64 | 277 | 2.6 | 5.2 | 0.00 | 0.20 | 0.04 | 76 | 1023.8 |
| 20260905214411 | 64 | 277 | 2.6 | 5.2 | 0.00 | 0.20 | 0.04 | 76 | 1023.8 |
| 20260905214312 | 64 | 277 | 2.6 | 6.1 | 0.00 | 0.20 | 0.04 | 76 | 1023.8 |
| 20260905214203 | 64 | 277 | 3.5 | 6.1 | 0.00 | 0.20 | 0.04 | 76 | 1023.8 |
| 20260905214106 | 64 | 277 | 2.6 | 6.1 | 0.00 | 0.20 | 0.04 | 76 | 1023.8 |
| 20260905214009 | 64 | 277 | 2.6 | 6.1 | 0.00 | 0.20 | 0.04 | 76 | 1023.8 |
| 20260905213859 | 64 | 277 | 2.6 | 6.1 | 0.00 | 0.20 | 0.04 | 76 | 1023.8 |
| 20260905213804 | 64 | 277 | 2.6 | 6.1 | 0.00 | 0.20 | 0.04 | 76 | 1023.8 |
| 20260905213706 | 64 | 276 | 3.5 | 6.1 | 0.00 | 0.20 | 0.04 | 76 | 1023.8 |
| 20260905213610 | 63 | 277 | 3.5 | 6.1 | 0.00 | 0.04 | 0.04 | 76 | 1022.9 |
| 20260905213538 | 64 | 276 | 3.5 | 6.1 | 0.00 | 0.20 | 0.04 | 76 | 1023.8 |
| 20260905213436 | 63 | 276 | 2.6 | 3.5 | 0.00 | 0.20 | 0.04 | 77 | 1023.7 |
| 20260905213317 | 63 | 276 | 1.7 | 3.5 | 0.00 | 0.20 | 0.04 | 77 | 1023.7 |
| 20260905213149 | 63 | 276 | 1.7 | 5.2 | 0.00 | 0.20 | 0.04 | 77 | 1023.7 |
| 20260905213035 | 63 | 276 | 1.7 | 5.2 | 0.00 | 0.20 | 0.04 | 77 | 1023.7 |
| 20260905212940 | 63 | 276 | 1.7 | 5.2 | 0.00 | 0.20 | 0.04 | 77 | 1023.7 |
| 20260905212829 | 63 | 276 | 1.7 | 5.2 | 0.00 | 0.20 | 0.04 | 77 | 1023.7 |
| 20260905212731 | 63 | 276 | 2.6 | 5.2 | 0.00 | 0.20 | 0.04 | 77 | 1023.7 |
| 20260905212632 | 63 | 276 | 2.6 | 5.2 | 0.00 | 0.20 | 0.04 | 78 | 1023.7 |
| 20260905212609 | 63 | 276 | 1.7 | 5.2 | 0.00 | 0.04 | 0.04 | 78 | 1022.8 |
| 20260905212525 | 63 | 276 | 2.6 | 5.2 | 0.00 | 0.20 | 0.04 | 78 | 1023.7 |
| 20260905212427 | 63 | 276 | 3.5 | 5.2 | 0.00 | 0.20 | 0.04 | 78 | 1023.7 |
| 20260905212307 | 63 | 276 | 3.5 | 5.2 | 0.00 | 0.20 | 0.04 | 78 | 1023.6 |
| 20260905212155 | 63 | 276 | 3.5 | 5.2 | 0.00 | 0.20 | 0.04 | 78 | 1023.6 |
| 20260905211727 | 63 | 276 | 2.6 | 5.2 | 0.00 | 0.20 | 0.04 | 78 | 1023.6 |
| 20260905211629 | 63 | 276 | 2.6 | 5.2 | 0.00 | 0.20 | 0.04 | 78 | 1023.6 |
| 20260905211531 | 63 | 276 | 2.6 | 5.2 | 0.00 | 0.20 | 0.04 | 78 | 1023.6 |
| 20260905211406 | 63 | 276 | 2.6 | 5.2 | 0.00 | 0.20 | 0.04 | 78 | 1023.6 |
| 20260905211307 | 63 | 276 | 2.6 | 5.2 | 0.00 | 0.20 | 0.04 | 78 | 1023.6 |
| 20260905211148 | 63 | 276 | 3.5 | 5.2 | 0.00 | 0.20 | 0.04 | 78 | 1023.6 |
| 20260905211126 | 62 | 276 | 2.6 | 5.2 | 0.00 | 0.04 | 0.04 | 78 | 1022.6 |
| 20260905211040 | 63 | 276 | 2.6 | 3.5 | 0.00 | 0.20 | 0.04 | 78 | 1023.6 |
| 20260905210943 | 63 | 276 | 2.6 | 3.5 | 0.00 | 0.20 | 0.04 | 78 | 1023.6 |
| 20260905210841 | 63 | 276 | 2.6 | 3.5 | 0.00 | 0.20 | 0.04 | 77 | 1023.6 |
| 20260905210737 | 63 | 276 | 2.6 | 3.5 | 0.00 | 0.20 | 0.04 | 77 | 1023.5 |
| 20260905210639 | 63 | 276 | 2.6 | 3.5 | 0.00 | 0.20 | 0.04 | 77 | 1023.5 |
| 20260905210541 | 63 | 276 | 2.6 | 3.5 | 0.00 | 0.20 | 0.04 | 77 | 1023.6 |
| 20260905210507 | 63 | 276 | 1.7 | 3.5 | 0.00 | 0.04 | 0.04 | 77 | 1022.6 |
| 20260905210431 | 63 | 276 | 1.7 | 3.5 | 0.00 | 0.20 | 0.04 | 76 | 1023.5 |
| 20260905210143 | 63 | 276 | 1.7 | 5.2 | 0.00 | 0.20 | 0.04 | 76 | 1023.6 |
| 20260905210104 | 63 | 276 | 0.9 | 5.2 | 0.00 | 0.04 | 0.04 | 76 | 1022.5 |
| 20260905210016 | 63 | 276 | 1.7 | 5.2 | 0.00 | 0.20 | 0.04 | 75 | 1023.5 |
| 20260905205919 | 63 | 276 | 2.6 | 5.2 | 0.00 | 0.20 | 0.04 | 75 | 1023.5 |
| 20260905205821 | 64 | 276 | 2.6 | 5.2 | 0.00 | 0.20 | 0.04 | 75 | 1023.5 |
| 20260905205714 | 64 | 276 | 2.6 | 5.2 | 0.00 | 0.20 | 0.04 | 76 | 1023.5 |
| 20260905205616 | 64 | 276 | 2.6 | 5.2 | 0.00 | 0.20 | 0.04 | 76 | 1023.5 |
| 20260905205457 | 63 | 277 | 2.6 | 3.5 | 0.00 | 0.20 | 0.04 | 77 | 1023.5 |
| 20260905205347 | 63 | 277 | 2.6 | 3.5 | 0.00 | 0.20 | 0.04 | 77 | 1023.5 |
| 20260905205226 | 63 | 277 | 2.6 | 3.5 | 0.00 | 0.20 | 0.04 | 77 | 1023.5 |
| 20260905205131 | 63 | 277 | 1.7 | 3.5 | 0.00 | 0.20 | 0.04 | 77 | 1023.5 |
| 20260905205058 | 63 | 277 | 1.7 | 3.5 | 0.00 | 0.04 | 0.04 | 76 | 1022.5 |
| 20260905205023 | 63 | 277 | 1.7 | 2.6 | 0.00 | 0.20 | 0.04 | 76 | 1023.5 |
| 20260905204902 | 63 | 277 | 1.7 | 2.6 | 0.00 | 0.20 | 0.04 | 76 | 1023.4 |
| 20260905204805 | 63 | 277 | 1.7 | 2.6 | 0.00 | 0.20 | 0.04 | 76 | 1023.5 |
| 20260905204658 | 63 | 277 | 1.7 | 2.6 | 0.00 | 0.20 | 0.04 | 76 | 1023.4 |
| 20260905204600 | 63 | 277 | 1.7 | 2.6 | 0.00 | 0.20 | 0.04 | 75 | 1023.5 |
| 20260905204445 | 63 | 277 | 0.9 | 2.6 | 0.00 | 0.20 | 0.04 | 75 | 1023.4 |
| 20260905204336 | 63 | 277 | 0.9 | 2.6 | 0.00 | 0.20 | 0.04 | 74 | 1023.4 |
| 20260905204237 | 63 | 277 | 0.0 | 2.6 | 0.00 | 0.20 | 0.04 | 74 | 1023.4 |
| 20260905204139 | 64 | 277 | 0.0 | 2.6 | 0.00 | 0.20 | 0.04 | 74 | 1023.4 |
| 20260905204044 | 63 | 277 | 0.0 | 2.6 | 0.00 | 0.04 | 0.04 | 74 | 1022.5 |
| 20260905204010 | 64 | 277 | 0.0 | 2.6 | 0.00 | 0.20 | 0.04 | 74 | 1023.4 |
| 20260905203910 | 64 | 277 | 0.9 | 2.6 | 0.00 | 0.20 | 0.04 | 74 | 1023.5 |
| 20260905203812 | 64 | 277 | 0.9 | 2.6 | 0.00 | 0.20 | 0.04 | 74 | 1023.4 |
| 20260905203709 | 64 | 277 | 0.9 | 2.6 | 0.00 | 0.20 | 0.04 | 74 | 1023.5 |
| 20260905203551 | 64 | 277 | 0.9 | 2.6 | 0.00 | 0.20 | 0.04 | 74 | 1023.5 |
| 20260905203454 | 64 | 277 | 0.0 | 2.6 | 0.00 | 0.20 | 0.04 | 74 | 1023.5 |
| 20260905203354 | 64 | 277 | 0.9 | 2.6 | 0.00 | 0.20 | 0.04 | 74 | 1023.5 |
| 20260905203225 | 64 | 277 | 0.9 | 2.6 | 0.00 | 0.20 | 0.04 | 74 | 1023.5 |
| 20260905203127 | 64 | 277 | 1.7 | 2.6 | 0.00 | 0.20 | 0.04 | 74 | 1023.5 |
| 20260905203034 | 64 | 277 | 1.7 | 2.6 | 0.00 | 0.20 | 0.04 | 74 | 1023.4 |
| 20260905202904 | 64 | 277 | 0.0 | 2.6 | 0.00 | 0.20 | 0.04 | 74 | 1023.4 |
| 20260905202807 | 64 | 277 | 0.0 | 2.6 | 0.00 | 0.20 | 0.04 | 74 | 1023.5 |
| 20260905202710 | 64 | 277 | 0.0 | 2.6 | 0.00 | 0.20 | 0.04 | 73 | 1023.5 |
| 20260905202635 | 64 | 277 | 0.0 | 2.6 | 0.00 | 0.04 | 0.04 | 73 | 1022.5 |
| 20260905202603 | 64 | 277 | 0.0 | 2.6 | 0.00 | 0.20 | 0.04 | 73 | 1023.4 |
| 20260905202428 | 64 | 277 | 0.0 | 3.5 | 0.00 | 0.20 | 0.04 | 73 | 1023.4 |
| 20260905202332 | 64 | 277 | 0.0 | 3.5 | 0.00 | 0.20 | 0.04 | 73 | 1023.3 |
| 20260905202210 | 64 | 277 | 1.7 | 3.5 | 0.00 | 0.20 | 0.04 | 73 | 1023.3 |
| 20260905202121 | 64 | 277 | 1.7 | 3.5 | 0.00 | 0.04 | 0.04 | 73 | 1022.3 |
| 20260905202041 | 64 | 277 | 1.7 | 3.5 | 0.00 | 0.20 | 0.04 | 73 | 1023.3 |
| 20260905201943 | 64 | 277 | 1.7 | 3.5 | 0.00 | 0.20 | 0.04 | 73 | 1023.4 |
| 20260905201843 | 64 | 277 | 1.7 | 3.5 | 0.00 | 0.20 | 0.04 | 73 | 1023.3 |
| 20260905201736 | 64 | 277 | 1.7 | 3.5 | 0.00 | 0.20 | 0.04 | 73 | 1023.3 |
| 20260905201637 | 64 | 277 | 0.9 | 3.5 | 0.00 | 0.20 | 0.04 | 73 | 1023.4 |
| 20260905201544 | 64 | 276 | 0.9 | 3.5 | 0.00 | 0.20 | 0.04 | 73 | 1023.3 |
| 20260905201510 | 64 | 276 | 0.9 | 3.5 | 0.00 | 0.04 | 0.04 | 73 | 1022.3 |
| 20260905201437 | 64 | 276 | 2.6 | 3.5 | 0.00 | 0.20 | 0.04 | 73 | 1023.3 |
| 20260905201338 | 64 | 276 | 2.6 | 3.5 | 0.00 | 0.20 | 0.04 | 73 | 1023.3 |
| 20260905201238 | 64 | 276 | 1.7 | 3.5 | 0.00 | 0.20 | 0.04 | 73 | 1023.3 |
| 20260905201003 | 64 | 276 | 1.7 | 3.5 | 0.00 | 0.20 | 0.04 | 72 | 1023.3 |
| 20260905200842 | 64 | 276 | 1.7 | 3.5 | 0.00 | 0.20 | 0.04 | 72 | 1023.2 |
| 20260905200749 | 64 | 276 | 1.7 | 5.2 | 0.00 | 0.20 | 0.04 | 72 | 1023.2 |
| 20260905200621 | 64 | 276 | 2.6 | 5.2 | 0.00 | 0.20 | 0.04 | 72 | 1023.2 |
| 20260905200524 | 64 | 276 | 2.6 | 5.2 | 0.00 | 0.20 | 0.04 | 72 | 1023.2 |
| 20260905200426 | 64 | 276 | 1.7 | 5.2 | 0.00 | 0.20 | 0.04 | 72 | 1023.2 |
| 20260905200317 | 64 | 276 | 2.6 | 5.2 | 0.00 | 0.20 | 0.04 | 72 | 1023.2 |
| 20260905200218 | 65 | 276 | 2.6 | 5.2 | 0.00 | 0.20 | 0.04 | 72 | 1023.1 |
| 20260905200124 | 65 | 277 | 2.6 | 5.2 | 0.00 | 0.20 | 0.04 | 72 | 1023.1 |
| 20260905200045 | 64 | 276 | 2.6 | 5.2 | 0.00 | 0.04 | 0.04 | 72 | 1022.1 |
| 20260905200016 | 65 | 276 | 2.6 | 5.2 | 0.00 | 0.20 | 0.04 | 72 | 1023.2 |
| 20260905195916 | 65 | 276 | 2.6 | 5.2 | 0.00 | 0.20 | 0.04 | 72 | 1023.2 |
| 20260905195818 | 65 | 276 | 2.6 | 5.2 | 0.00 | 0.20 | 0.04 | 72 | 1023.1 |
| 20260905195720 | 65 | 276 | 2.6 | 5.2 | 0.00 | 0.20 | 0.04 | 72 | 1023.1 |
| 20260905195657 | 64 | 276 | 1.7 | 5.2 | 0.00 | 0.04 | 0.04 | 72 | 1022.1 |
| 20260905195611 | 65 | 276 | 2.6 | 5.2 | 0.00 | 0.20 | 0.04 | 72 | 1023.1 |
| 20260905195512 | 65 | 276 | 2.6 | 6.1 | 0.00 | 0.20 | 0.04 | 72 | 1023.1 |
| 20260905195416 | 65 | 276 | 2.6 | 6.1 | 0.00 | 0.20 | 0.04 | 71 | 1023.0 |
| 20260905195307 | 65 | 276 | 2.6 | 6.1 | 0.00 | 0.20 | 0.04 | 71 | 1023.1 |
| 20260905195206 | 65 | 276 | 3.5 | 6.1 | 0.00 | 0.20 | 0.04 | 72 | 1023.1 |
| 20260905195108 | 65 | 276 | 3.5 | 6.1 | 0.00 | 0.20 | 0.04 | 72 | 1023.1 |
| 20260905195020 | 64 | 276 | 2.6 | 6.1 | 0.00 | 0.04 | 0.04 | 72 | 1022.1 |
| 20260905194939 | 65 | 276 | 3.5 | 6.1 | 0.00 | 0.20 | 0.04 | 72 | 1023.1 |
| 20260905194839 | 65 | 280 | 4.3 | 6.1 | 0.00 | 0.20 | 0.04 | 71 | 1023.0 |
| 20260905194725 | 65 | 280 | 4.3 | 7.0 | 0.00 | 0.20 | 0.04 | 71 | 1023.0 |
| 20260905194628 | 65 | 282 | 4.3 | 7.0 | 0.00 | 0.20 | 0.04 | 72 | 1023.0 |
| 20260905194608 | 64 | 282 | 3.5 | 7.0 | 0.00 | 0.04 | 0.04 | 72 | 1022.0 |
| 20260905194520 | 65 | 283 | 3.5 | 7.0 | 0.00 | 0.20 | 0.04 | 72 | 1023.0 |
| 20260905194420 | 65 | 282 | 4.3 | 7.0 | 0.00 | 0.20 | 0.04 | 72 | 1023.0 |
| 20260905194322 | 65 | 283 | 4.3 | 7.0 | 0.00 | 0.20 | 0.04 | 72 | 1023.0 |
| 20260905194151 | 65 | 280 | 4.3 | 7.0 | 0.00 | 0.20 | 0.04 | 72 | 1023.0 |
| 20260905194037 | 65 | 280 | 4.3 | 7.0 | 0.00 | 0.20 | 0.04 | 72 | 1023.0 |
| 20260905194008 | 64 | 281 | 4.3 | 7.0 | 0.00 | 0.04 | 0.04 | 72 | 1021.9 |
| 20260905193931 | 65 | 281 | 4.3 | 7.0 | 0.00 | 0.20 | 0.04 | 72 | 1023.0 |
| 20260905193831 | 65 | 278 | 3.5 | 6.1 | 0.00 | 0.20 | 0.04 | 72 | 1022.9 |
| 20260905193607 | 64 | 278 | 3.5 | 5.2 | 0.00 | 0.04 | 0.04 | 72 | 1021.8 |
| 20260905193531 | 65 | 278 | 3.5 | 5.2 | 0.00 | 0.20 | 0.04 | 72 | 1022.9 |
| 20260905193408 | 65 | 278 | 3.5 | 3.5 | 0.00 | 0.20 | 0.04 | 72 | 1022.9 |
| 20260905193310 | 65 | 269 | 2.6 | 3.5 | 0.00 | 0.20 | 0.04 | 72 | 1022.9 |
| 20260905193215 | 65 | 272 | 2.6 | 3.5 | 0.00 | 0.20 | 0.04 | 72 | 1022.9 |
| 20260905193153 | 64 | 272 | 2.6 | 3.5 | 0.00 | 0.04 | 0.04 | 72 | 1021.8 |
| 20260905193107 | 65 | 260 | 2.6 | 3.5 | 0.00 | 0.20 | 0.04 | 71 | 1022.9 |
| 20260905193009 | 65 | 260 | 1.7 | 3.5 | 0.00 | 0.20 | 0.04 | 72 | 1022.9 |
| 20260905192848 | 65 | 260 | 2.6 | 3.5 | 0.00 | 0.20 | 0.04 | 71 | 1022.9 |
| 20260905192720 | 65 | 260 | 2.6 | 3.5 | 0.00 | 0.20 | 0.04 | 71 | 1022.9 |
| 20260905192538 | 65 | 260 | 2.6 | 3.5 | 0.00 | 0.20 | 0.04 | 71 | 1022.9 |
| 20260905192417 | 65 | 260 | 2.6 | 3.5 | 0.00 | 0.20 | 0.04 | 71 | 1022.9 |
| 20260905192313 | 65 | 260 | 3.5 | 3.5 | 0.00 | 0.20 | 0.04 | 71 | 1022.9 |
| 20260905192152 | 65 | 259 | 2.6 | 3.5 | 0.00 | 0.20 | 0.04 | 71 | 1022.9 |
| 20260905192053 | 65 | 259 | 2.6 | 3.5 | 0.00 | 0.20 | 0.04 | 71 | 1023.0 |
| 20260905192017 | 65 | 259 | 2.6 | 3.5 | 0.00 | 0.04 | 0.04 | 71 | 1021.9 |
| 20260905191945 | 65 | 258 | 2.6 | 3.5 | 0.00 | 0.20 | 0.04 | 71 | 1022.9 |
| 20260905191845 | 65 | 258 | 2.6 | 3.5 | 0.00 | 0.20 | 0.04 | 71 | 1022.9 |
| 20260905191748 | 65 | 258 | 2.6 | 4.3 | 0.00 | 0.20 | 0.04 | 71 | 1022.9 |
| 20260905191655 | 65 | 258 | 2.6 | 4.3 | 0.00 | 0.20 | 0.04 | 71 | 1022.9 |
| 20260905191616 | 65 | 258 | 1.7 | 4.3 | 0.00 | 0.04 | 0.04 | 71 | 1021.9 |
| 20260905191525 | 65 | 258 | 2.6 | 4.3 | 0.00 | 0.20 | 0.04 | 71 | 1022.9 |
| 20260905191428 | 65 | 258 | 2.6 | 4.3 | 0.00 | 0.20 | 0.04 | 70 | 1022.9 |
| 20260905191328 | 65 | 258 | 2.6 | 4.3 | 0.00 | 0.20 | 0.04 | 70 | 1022.8 |
| 20260905191221 | 65 | 258 | 2.6 | 4.3 | 0.00 | 0.20 | 0.04 | 70 | 1022.9 |
| 20260905191122 | 65 | 258 | 2.6 | 4.3 | 0.00 | 0.20 | 0.04 | 70 | 1022.9 |
| 20260905191024 | 65 | 258 | 2.6 | 4.3 | 0.00 | 0.20 | 0.04 | 70 | 1022.9 |
| 20260905190907 | 65 | 258 | 2.6 | 4.3 | 0.00 | 0.20 | 0.04 | 70 | 1022.8 |
| 20260905190800 | 66 | 258 | 2.6 | 4.3 | 0.00 | 0.20 | 0.04 | 70 | 1022.9 |
| 20260905190702 | 66 | 258 | 3.5 | 4.3 | 0.00 | 0.20 | 0.04 | 70 | 1022.8 |
| 20260905190603 | 66 | 258 | 2.6 | 4.3 | 0.00 | 0.20 | 0.04 | 70 | 1022.8 |
| 20260905190536 | 65 | 258 | 2.6 | 4.3 | 0.00 | 0.04 | 0.04 | 70 | 1021.7 |
| 20260905190457 | 66 | 258 | 2.6 | 4.3 | 0.00 | 0.20 | 0.04 | 70 | 1022.8 |
| 20260905190356 | 66 | 258 | 3.5 | 4.3 | 0.00 | 0.20 | 0.04 | 70 | 1022.7 |
| 20260905190200 | 65 | 258 | 2.6 | 4.3 | 0.00 | 0.04 | 0.04 | 69 | 1021.7 |
| 20260905190104 | 66 | 258 | 3.5 | 6.1 | 0.00 | 0.20 | 0.04 | 69 | 1022.7 |
| 20260905190005 | 66 | 258 | 3.5 | 6.1 | 0.00 | 0.20 | 0.04 | 69 | 1022.7 |
| 20260905185904 | 66 | 258 | 2.6 | 7.0 | 0.00 | 0.20 | 0.04 | 69 | 1022.7 |
| 20260905185806 | 66 | 259 | 2.6 | 7.0 | 0.00 | 0.20 | 0.04 | 69 | 1022.7 |
| 20260905185659 | 66 | 258 | 3.5 | 7.0 | 0.00 | 0.20 | 0.04 | 69 | 1022.8 |
| 20260905185601 | 66 | 258 | 3.5 | 7.0 | 0.00 | 0.20 | 0.04 | 69 | 1022.7 |
| 20260905185508 | 66 | 258 | 4.3 | 7.0 | 0.00 | 0.20 | 0.04 | 69 | 1022.7 |
| 20260905185337 | 67 | 259 | 3.5 | 7.0 | 0.00 | 0.20 | 0.04 | 68 | 1022.7 |
| 20260905185240 | 67 | 255 | 3.5 | 7.0 | 0.00 | 0.20 | 0.04 | 68 | 1022.7 |
| 20260905185142 | 67 | 255 | 3.5 | 7.0 | 0.00 | 0.20 | 0.04 | 68 | 1022.6 |
| 20260905185107 | 66 | 255 | 3.5 | 7.0 | 0.00 | 0.04 | 0.04 | 68 | 1021.5 |
| 20260905185035 | 67 | 255 | 4.3 | 7.0 | 0.00 | 0.20 | 0.04 | 68 | 1022.6 |
| 20260905184937 | 67 | 257 | 3.5 | 6.1 | 0.00 | 0.20 | 0.04 | 68 | 1022.6 |
| 20260905184834 | 67 | 258 | 3.5 | 6.1 | 0.00 | 0.20 | 0.04 | 68 | 1022.5 |
| 20260905184741 | 67 | 258 | 3.5 | 6.1 | 0.00 | 0.20 | 0.04 | 68 | 1022.5 |
| 20260905184656 | 67 | 258 | 2.6 | 6.1 | 0.00 | 0.04 | 0.04 | 68 | 1021.4 |
| 20260905184444 | 67 | 259 | 4.3 | 7.8 | 0.00 | 0.20 | 0.04 | 67 | 1022.5 |
| 20260905184343 | 67 | 259 | 3.5 | 7.8 | 0.00 | 0.20 | 0.04 | 67 | 1022.5 |
| 20260905184234 | 68 | 266 | 3.5 | 7.8 | 0.00 | 0.20 | 0.04 | 67 | 1022.5 |
| 20260905184136 | 68 | 261 | 2.6 | 7.8 | 0.00 | 0.20 | 0.04 | 67 | 1022.5 |
| 20260905184039 | 68 | 263 | 2.6 | 7.8 | 0.00 | 0.20 | 0.04 | 67 | 1022.5 |
| 20260905184021 | 67 | 263 | 2.6 | 7.8 | 0.00 | 0.04 | 0.04 | 67 | 1021.4 |
| 20260905183936 | 68 | 263 | 3.5 | 9.6 | 0.00 | 0.20 | 0.04 | 67 | 1022.5 |
| 20260905183813 | 68 | 263 | 5.2 | 10.4 | 0.00 | 0.20 | 0.04 | 67 | 1022.4 |
| 20260905183715 | 68 | 265 | 5.2 | 10.4 | 0.00 | 0.20 | 0.04 | 66 | 1022.4 |
| 20260905183642 | 68 | 264 | 4.3 | 10.4 | 0.00 | 0.04 | 0.04 | 66 | 1021.3 |
| 20260905183608 | 68 | 263 | 5.2 | 10.4 | 0.00 | 0.20 | 0.04 | 66 | 1022.4 |
| 20260905183512 | 68 | 263 | 5.2 | 10.4 | 0.00 | 0.20 | 0.04 | 66 | 1022.4 |
| 20260905183352 | 68 | 264 | 6.1 | 11.3 | 0.00 | 0.20 | 0.04 | 66 | 1022.3 |
| 20260905183257 | 68 | 258 | 7.0 | 11.3 | 0.00 | 0.20 | 0.04 | 66 | 1022.3 |
| 20260905183151 | 68 | 263 | 7.0 | 11.3 | 0.00 | 0.20 | 0.04 | 66 | 1022.3 |
| 20260905183054 | 68 | 276 | 7.8 | 11.3 | 0.00 | 0.20 | 0.04 | 66 | 1022.3 |
| 20260905182957 | 68 | 255 | 7.8 | 11.3 | 0.00 | 0.20 | 0.04 | 66 | 1022.3 |
| 20260905182847 | 68 | 269 | 7.8 | 11.3 | 0.00 | 0.20 | 0.04 | 66 | 1022.2 |
| 20260905182748 | 69 | 269 | 7.8 | 11.3 | 0.00 | 0.20 | 0.04 | 66 | 1022.2 |
| 20260905182608 | 69 | 266 | 7.0 | 11.3 | 0.00 | 0.20 | 0.04 | 65 | 1022.2 |
| 20260905182538 | 68 | 284 | 6.1 | 11.3 | 0.00 | 0.04 | 0.04 | 65 | 1021.0 |
| 20260905182505 | 69 | 267 | 6.1 | 11.3 | 0.00 | 0.20 | 0.04 | 66 | 1022.2 |
| 20260905182404 | 69 | 275 | 7.0 | 11.3 | 0.00 | 0.20 | 0.04 | 65 | 1022.1 |
| 20260905182243 | 69 | 259 | 7.0 | 14.8 | 0.00 | 0.20 | 0.04 | 65 | 1022.1 |
| 20260905182124 | 69 | 255 | 7.8 | 14.8 | 0.00 | 0.20 | 0.04 | 65 | 1022.1 |
| 20260905182059 | 68 | 267 | 7.8 | 14.8 | 0.00 | 0.04 | 0.04 | 65 | 1020.9 |
| 20260905182017 | 69 | 263 | 7.8 | 14.8 | 0.00 | 0.20 | 0.04 | 65 | 1022.0 |
| 20260905181916 | 69 | 249 | 7.8 | 14.8 | 0.00 | 0.20 | 0.04 | 65 | 1022.0 |
| 20260905181822 | 69 | 267 | 7.8 | 14.8 | 0.00 | 0.20 | 0.04 | 65 | 1022.0 |
| 20260905181715 | 69 | 250 | 8.7 | 14.8 | 0.00 | 0.20 | 0.04 | 65 | 1022.0 |
| 20260905181617 | 69 | 262 | 9.6 | 14.8 | 0.00 | 0.20 | 0.04 | 65 | 1022.0 |
| 20260905181520 | 69 | 263 | 10.4 | 14.8 | 0.00 | 0.20 | 0.04 | 65 | 1022.0 |
| 20260905181419 | 69 | 251 | 8.7 | 18.2 | 0.00 | 0.20 | 0.04 | 65 | 1021.9 |
| 20260905181313 | 69 | 261 | 9.6 | 18.2 | 0.00 | 0.20 | 0.04 | 65 | 1021.9 |
| 20260905181213 | 69 | 263 | 8.7 | 18.2 | 0.00 | 0.20 | 0.04 | 65 | 1021.9 |
| 20260905181119 | 69 | 266 | 7.8 | 18.2 | 0.00 | 0.20 | 0.04 | 65 | 1021.9 |
| 20260905181030 | 69 | 264 | 7.8 | 18.2 | 0.00 | 0.04 | 0.04 | 65 | 1020.9 |
| 20260905180951 | 69 | 268 | 8.7 | 18.2 | 0.00 | 0.20 | 0.04 | 65 | 1021.9 |
| 20260905180830 | 69 | 276 | 9.6 | 18.2 | 0.00 | 0.20 | 0.04 | 65 | 1021.9 |
| 20260905180730 | 69 | 259 | 10.4 | 18.2 | 0.00 | 0.20 | 0.04 | 65 | 1021.9 |
| 20260905180657 | 69 | 259 | 9.6 | 18.2 | 0.00 | 0.04 | 0.04 | 65 | 1020.8 |
| 20260905180624 | 69 | 268 | 9.6 | 18.2 | 0.00 | 0.20 | 0.04 | 65 | 1021.8 |
| 20260905180504 | 69 | 253 | 9.6 | 13.9 | 0.00 | 0.20 | 0.04 | 65 | 1021.8 |
| 20260905180407 | 69 | 268 | 9.6 | 13.9 | 0.00 | 0.20 | 0.04 | 65 | 1021.8 |
| 20260905180310 | 69 | 249 | 10.4 | 13.9 | 0.00 | 0.20 | 0.04 | 65 | 1021.8 |
| 20260905180202 | 69 | 259 | 10.4 | 13.9 | 0.00 | 0.20 | 0.04 | 65 | 1021.8 |
| 20260905180105 | 69 | 257 | 10.4 | 13.9 | 0.00 | 0.20 | 0.04 | 65 | 1021.7 |
| 20260905180007 | 69 | 261 | 10.4 | 13.9 | 0.00 | 0.20 | 0.04 | 65 | 1021.7 |
| 20260905175857 | 70 | 253 | 9.6 | 13.9 | 0.00 | 0.20 | 0.04 | 65 | 1021.7 |
| 20260905175759 | 70 | 247 | 8.7 | 13.9 | 0.00 | 0.20 | 0.04 | 65 | 1021.6 |
| 20260905175644 | 70 | 251 | 8.7 | 13.9 | 0.00 | 0.20 | 0.04 | 65 | 1021.6 |
| 20260905175606 | 69 | 261 | 8.7 | 13.9 | 0.00 | 0.04 | 0.04 | 65 | 1020.6 |
| 20260905175407 | 70 | 247 | 8.7 | 17.4 | 0.00 | 0.20 | 0.04 | 65 | 1021.6 |
| 20260905175309 | 70 | 257 | 9.6 | 17.4 | 0.00 | 0.20 | 0.04 | 65 | 1021.6 |
| 20260905175150 | 70 | 273 | 10.4 | 17.4 | 0.00 | 0.20 | 0.04 | 65 | 1021.6 |
| 20260905175125 | 69 | 247 | 9.6 | 17.4 | 0.00 | 0.04 | 0.04 | 65 | 1020.5 |
| 20260905175042 | 70 | 260 | 10.4 | 17.4 | 0.00 | 0.20 | 0.04 | 65 | 1021.6 |
| 20260905174945 | 70 | 274 | 9.6 | 17.4 | 0.00 | 0.20 | 0.04 | 65 | 1021.6 |
| 20260905174849 | 70 | 250 | 11.3 | 17.4 | 0.00 | 0.20 | 0.04 | 65 | 1021.5 |
| 20260905174722 | 70 | 261 | 13.0 | 17.4 | 0.00 | 0.20 | 0.04 | 65 | 1021.5 |
| 20260905174625 | 70 | 269 | 12.2 | 17.4 | 0.00 | 0.20 | 0.04 | 65 | 1021.5 |
| 20260905174528 | 70 | 249 | 10.4 | 14.8 | 0.00 | 0.20 | 0.04 | 66 | 1021.5 |
| 20260905174417 | 70 | 276 | 10.4 | 14.8 | 0.00 | 0.20 | 0.04 | 66 | 1021.4 |
| 20260905174319 | 70 | 263 | 9.6 | 14.8 | 0.00 | 0.20 | 0.04 | 66 | 1021.4 |
| 20260905174223 | 70 | 263 | 9.6 | 14.8 | 0.00 | 0.20 | 0.04 | 66 | 1021.4 |
| 20260905174147 | 69 | 271 | 8.7 | 14.8 | 0.00 | 0.04 | 0.04 | 66 | 1020.3 |
| 20260905174116 | 70 | 267 | 10.4 | 14.8 | 0.00 | 0.20 | 0.04 | 66 | 1021.4 |
| 20260905174020 | 70 | 260 | 12.2 | 14.8 | 0.00 | 0.20 | 0.04 | 66 | 1021.4 |
| 20260905173919 | 70 | 243 | 12.2 | 14.8 | 0.00 | 0.20 | 0.04 | 66 | 1021.4 |
| 20260905173810 | 70 | 265 | 9.6 | 13.0 | 0.00 | 0.20 | 0.04 | 66 | 1021.4 |
| 20260905173712 | 70 | 276 | 10.4 | 13.0 | 0.00 | 0.20 | 0.04 | 66 | 1021.3 |
| 20260905173614 | 70 | 272 | 9.6 | 13.0 | 0.00 | 0.20 | 0.04 | 66 | 1021.3 |
| 20260905173520 | 70 | 261 | 8.7 | 13.0 | 0.00 | 0.20 | 0.04 | 66 | 1021.3 |
| 20260905173411 | 70 | 264 | 7.8 | 11.3 | 0.00 | 0.20 | 0.04 | 66 | 1021.3 |
| 20260905173313 | 70 | 274 | 7.8 | 11.3 | 0.00 | 0.20 | 0.04 | 66 | 1021.3 |
| 20260905173213 | 70 | 256 | 7.8 | 11.3 | 0.00 | 0.20 | 0.04 | 66 | 1021.3 |
| 20260905173119 | 70 | 258 | 7.0 | 11.3 | 0.00 | 0.04 | 0.04 | 66 | 1020.1 |
| 20260905173046 | 70 | 250 | 7.0 | 11.3 | 0.00 | 0.20 | 0.04 | 66 | 1021.3 |
| 20260905172949 | 70 | 263 | 7.0 | 11.3 | 0.00 | 0.20 | 0.04 | 65 | 1021.3 |
| 20260905172833 | 70 | 273 | 8.7 | 11.3 | 0.00 | 0.20 | 0.04 | 65 | 1021.2 |
| 20260905172715 | 70 | 257 | 8.7 | 11.3 | 0.00 | 0.20 | 0.04 | 65 | 1021.3 |
| 20260905172649 | 70 | 250 | 7.8 | 11.3 | 0.00 | 0.04 | 0.04 | 65 | 1020.1 |
| 20260905172609 | 70 | 270 | 7.8 | 10.4 | 0.00 | 0.20 | 0.04 | 64 | 1021.3 |
| 20260905172511 | 70 | 268 | 8.7 | 12.2 | 0.00 | 0.20 | 0.04 | 64 | 1021.2 |
| 20260905172411 | 71 | 272 | 7.8 | 12.2 | 0.00 | 0.20 | 0.04 | 64 | 1021.3 |
| 20260905172241 | 71 | 270 | 7.8 | 13.0 | 0.00 | 0.20 | 0.04 | 64 | 1021.3 |
| 20260905171957 | 71 | 274 | 7.8 | 13.0 | 0.00 | 0.20 | 0.04 | 63 | 1021.2 |
| 20260905171848 | 71 | 272 | 8.7 | 13.0 | 0.00 | 0.20 | 0.04 | 63 | 1021.2 |
| 20260905171750 | 71 | 280 | 8.7 | 13.0 | 0.00 | 0.20 | 0.04 | 62 | 1021.2 |
| 20260905171630 | 71 | 265 | 8.7 | 13.0 | 0.00 | 0.20 | 0.04 | 62 | 1021.3 |
| 20260905171615 | 71 | 264 | 8.7 | 13.0 | 0.00 | 0.04 | 0.04 | 62 | 1020.1 |
| 20260905171523 | 71 | 257 | 10.4 | 13.0 | 0.00 | 0.20 | 0.04 | 62 | 1021.3 |
| 20260905171426 | 71 | 272 | 9.6 | 13.0 | 0.00 | 0.20 | 0.04 | 62 | 1021.2 |
| 20260905171325 | 71 | 253 | 8.7 | 13.0 | 0.00 | 0.20 | 0.04 | 62 | 1021.2 |
| 20260905171230 | 72 | 270 | 9.6 | 13.0 | 0.00 | 0.20 | 0.04 | 62 | 1021.2 |
| 20260905171143 | 71 | 249 | 8.7 | 13.0 | 0.00 | 0.04 | 0.04 | 62 | 1020.1 |
| 20260905171103 | 72 | 271 | 9.6 | 13.0 | 0.00 | 0.20 | 0.04 | 61 | 1021.2 |
| 20260905171006 | 72 | 259 | 9.6 | 13.9 | 0.00 | 0.20 | 0.04 | 61 | 1021.2 |
| 20260905170904 | 72 | 259 | 10.4 | 14.8 | 0.00 | 0.20 | 0.04 | 61 | 1021.2 |
| 20260905170758 | 72 | 272 | 9.6 | 14.8 | 0.00 | 0.20 | 0.04 | 61 | 1021.2 |
| 20260905170701 | 72 | 261 | 9.6 | 14.8 | 0.00 | 0.20 | 0.04 | 60 | 1021.2 |
| 20260905170606 | 72 | 276 | 9.6 | 14.8 | 0.00 | 0.20 | 0.04 | 60 | 1021.2 |
| 20260905170534 | 72 | 274 | 9.6 | 14.8 | 0.00 | 0.04 | 0.04 | 60 | 1020.1 |
| 20260905170459 | 72 | 271 | 9.6 | 14.8 | 0.00 | 0.20 | 0.04 | 60 | 1021.2 |
| 20260905170337 | 72 | 272 | 9.6 | 14.8 | 0.00 | 0.20 | 0.04 | 60 | 1021.1 |
| 20260905170216 | 72 | 286 | 11.3 | 14.8 | 0.00 | 0.20 | 0.04 | 59 | 1021.1 |
| 20260905170146 | 72 | 270 | 11.3 | 14.8 | 0.00 | 0.04 | 0.04 | 59 | 1019.9 |
| 20260905170108 | 73 | 265 | 11.3 | 14.8 | 0.00 | 0.20 | 0.04 | 59 | 1021.1 |
| 20260905170010 | 73 | 272 | 9.6 | 14.8 | 0.00 | 0.20 | 0.04 | 59 | 1021.2 |
| 20260905165910 | 73 | 255 | 9.6 | 13.9 | 0.00 | 0.20 | 0.04 | 59 | 1021.1 |
| 20260905165808 | 73 | 288 | 8.7 | 17.4 | 0.00 | 0.20 | 0.04 | 59 | 1021.2 |
| 20260905165650 | 73 | 265 | 8.7 | 17.4 | 0.00 | 0.20 | 0.04 | 59 | 1021.2 |
| 20260905165552 | 73 | 269 | 8.7 | 17.4 | 0.00 | 0.20 | 0.04 | 59 | 1021.2 |
| 20260905165515 | 72 | 270 | 9.6 | 17.4 | 0.00 | 0.04 | 0.04 | 59 | 1020.0 |
| 20260905165445 | 73 | 278 | 9.6 | 17.4 | 0.00 | 0.20 | 0.04 | 59 | 1021.2 |
| 20260905165345 | 73 | 270 | 9.6 | 17.4 | 0.00 | 0.20 | 0.04 | 59 | 1021.2 |
| 20260905165247 | 73 | 268 | 10.4 | 17.4 | 0.00 | 0.20 | 0.04 | 58 | 1021.2 |
| 20260905165132 | 73 | 286 | 11.3 | 17.4 | 0.00 | 0.20 | 0.04 | 58 | 1021.1 |
| 20260905165106 | 73 | 279 | 12.2 | 17.4 | 0.00 | 0.04 | 0.04 | 58 | 1020.0 |
| 20260905165025 | 73 | 259 | 13.9 | 17.4 | 0.00 | 0.20 | 0.04 | 58 | 1021.2 |
| 20260905164928 | 73 | 275 | 13.9 | 17.4 | 0.00 | 0.20 | 0.04 | 58 | 1021.1 |
| 20260905164825 | 73 | 288 | 13.0 | 17.4 | 0.00 | 0.20 | 0.04 | 58 | 1021.1 |
| 20260905164635 | 73 | 255 | 12.2 | 18.2 | 0.00 | 0.20 | 0.04 | 58 | 1021.0 |
| 20260905164536 | 73 | 265 | 11.3 | 18.2 | 0.00 | 0.20 | 0.04 | 58 | 1021.0 |
| 20260905164416 | 73 | 278 | 12.2 | 18.2 | 0.00 | 0.20 | 0.04 | 57 | 1021.1 |
| 20260905164313 | 73 | 263 | 13.9 | 18.2 | 0.00 | 0.20 | 0.04 | 58 | 1021.0 |
| 20260905164134 | 73 | 262 | 13.9 | 18.2 | 0.00 | 0.20 | 0.04 | 57 | 1021.0 |
| 20260905164102 | 73 | 266 | 13.0 | 18.2 | 0.00 | 0.04 | 0.04 | 57 | 1019.9 |
| 20260905164026 | 74 | 257 | 13.9 | 18.2 | 0.00 | 0.20 | 0.04 | 57 | 1021.1 |
| 20260905163906 | 74 | 238 | 15.6 | 18.2 | 0.00 | 0.20 | 0.04 | 57 | 1021.0 |
| 20260905163809 | 74 | 255 | 15.6 | 18.2 | 0.00 | 0.20 | 0.04 | 57 | 1021.0 |
| 20260905163701 | 74 | 275 | 13.9 | 20.0 | 0.00 | 0.20 | 0.04 | 57 | 1021.0 |
| 20260905163547 | 74 | 255 | 12.2 | 20.0 | 0.00 | 0.20 | 0.04 | 57 | 1021.1 |
| 20260905163428 | 74 | 268 | 13.0 | 20.9 | 0.00 | 0.20 | 0.04 | 57 | 1021.1 |
| 20260905163318 | 74 | 275 | 13.9 | 20.9 | 0.00 | 0.20 | 0.04 | 57 | 1021.1 |
| 20260905163158 | 74 | 274 | 13.0 | 20.9 | 0.00 | 0.20 | 0.04 | 57 | 1021.0 |
| 20260905163039 | 74 | 261 | 13.9 | 20.9 | 0.00 | 0.20 | 0.04 | 57 | 1021.0 |
| 20260905162937 | 74 | 272 | 14.8 | 20.9 | 0.00 | 0.20 | 0.04 | 57 | 1021.0 |
| 20260905162813 | 74 | 268 | 14.8 | 20.9 | 0.00 | 0.20 | 0.04 | 57 | 1021.1 |
| 20260905162715 | 74 | 294 | 15.6 | 20.9 | 0.00 | 0.20 | 0.04 | 57 | 1021.0 |
| 20260905162618 | 74 | 292 | 16.5 | 20.9 | 0.00 | 0.20 | 0.04 | 57 | 1021.1 |
| 20260905162551 | 73 | 278 | 15.6 | 20.9 | 0.00 | 0.04 | 0.04 | 57 | 1019.9 |
| 20260905162511 | 74 | 272 | 14.8 | 20.9 | 0.00 | 0.20 | 0.04 | 57 | 1021.0 |
| 20260905162409 | 74 | 267 | 14.8 | 20.9 | 0.00 | 0.20 | 0.04 | 57 | 1021.1 |
| 20260905162311 | 74 | 270 | 15.6 | 20.9 | 0.00 | 0.20 | 0.04 | 57 | 1021.0 |
| 20260905162158 | 74 | 266 | 13.9 | 20.9 | 0.00 | 0.20 | 0.04 | 57 | 1021.0 |
| 20260905162101 | 74 | 275 | 13.0 | 20.9 | 0.00 | 0.20 | 0.04 | 57 | 1021.0 |
| 20260905162003 | 74 | 259 | 15.6 | 20.9 | 0.00 | 0.20 | 0.04 | 57 | 1021.0 |
| 20260905161854 | 74 | 251 | 16.5 | 20.9 | 0.00 | 0.20 | 0.04 | 57 | 1021.0 |
| 20260905161755 | 74 | 265 | 14.8 | 20.9 | 0.00 | 0.20 | 0.04 | 57 | 1021.0 |
| 20260905161657 | 74 | 274 | 13.9 | 20.9 | 0.00 | 0.20 | 0.04 | 57 | 1021.0 |
| 20260905161621 | 73 | 267 | 13.9 | 20.9 | 0.00 | 0.04 | 0.04 | 57 | 1019.8 |
| 20260905161550 | 74 | 261 | 14.8 | 20.9 | 0.00 | 0.20 | 0.04 | 57 | 1021.0 |
| 20260905161456 | 74 | 292 | 15.6 | 25.2 | 0.00 | 0.20 | 0.04 | 57 | 1020.9 |
| 20260905161355 | 74 | 282 | 15.6 | 25.2 | 0.00 | 0.20 | 0.04 | 57 | 1021.0 |
| 20260905161236 | 74 | 271 | 15.6 | 25.2 | 0.00 | 0.20 | 0.04 | 57 | 1021.0 |
| 20260905161103 | 74 | 278 | 15.6 | 25.2 | 0.00 | 0.20 | 0.04 | 56 | 1020.9 |
| 20260905161005 | 74 | 236 | 14.8 | 25.2 | 0.00 | 0.20 | 0.04 | 57 | 1020.9 |
| 20260905160907 | 74 | 263 | 15.6 | 25.2 | 0.00 | 0.20 | 0.04 | 57 | 1021.0 |
| 20260905160758 | 74 | 269 | 18.2 | 25.2 | 0.00 | 0.20 | 0.04 | 56 | 1021.0 |
| 20260905160703 | 74 | 259 | 18.2 | 25.2 | 0.00 | 0.20 | 0.04 | 56 | 1020.9 |
| 20260905160606 | 74 | 274 | 17.4 | 22.6 | 0.00 | 0.20 | 0.04 | 56 | 1020.9 |
| 20260905160539 | 74 | 247 | 15.6 | 22.6 | 0.00 | 0.04 | 0.04 | 56 | 1019.7 |
| 20260905160501 | 74 | 265 | 14.8 | 22.6 | 0.00 | 0.20 | 0.04 | 56 | 1020.8 |
| 20260905160401 | 74 | 281 | 13.0 | 22.6 | 0.00 | 0.20 | 0.04 | 56 | 1020.9 |
| 20260905160303 | 74 | 268 | 13.0 | 22.6 | 0.00 | 0.20 | 0.04 | 56 | 1020.9 |
| 20260905160153 | 74 | 276 | 13.0 | 26.1 | 0.00 | 0.20 | 0.04 | 57 | 1020.9 |
| 20260905160058 | 74 | 303 | 13.0 | 26.1 | 0.00 | 0.20 | 0.04 | 57 | 1020.9 |
| 20260905160000 | 74 | 255 | 12.2 | 26.1 | 0.00 | 0.20 | 0.04 | 57 | 1021.0 |
| 20260905155829 | 74 | 256 | 13.9 | 26.1 | 0.00 | 0.20 | 0.04 | 57 | 1020.9 |
| 20260905155731 | 74 | 243 | 17.4 | 26.1 | 0.00 | 0.20 | 0.04 | 56 | 1020.9 |
| 20260905155632 | 74 | 268 | 18.2 | 26.1 | 0.00 | 0.20 | 0.04 | 57 | 1020.9 |
| 20260905155604 | 74 | 272 | 18.2 | 26.1 | 0.00 | 0.04 | 0.04 | 57 | 1019.7 |
| 20260905155526 | 74 | 267 | 20.0 | 26.1 | 0.00 | 0.20 | 0.04 | 56 | 1020.9 |
| 20260905155426 | 74 | 263 | 19.1 | 26.1 | 0.00 | 0.20 | 0.04 | 56 | 1020.9 |
| 20260905155311 | 74 | 277 | 20.0 | 26.9 | 0.00 | 0.20 | 0.04 | 56 | 1020.9 |
| 20260905155204 | 74 | 270 | 20.0 | 26.9 | 0.00 | 0.20 | 0.04 | 56 | 1020.9 |
| 20260905155103 | 74 | 243 | 20.0 | 26.9 | 0.00 | 0.20 | 0.04 | 55 | 1020.9 |
| 20260905155004 | 74 | 265 | 17.4 | 26.9 | 0.00 | 0.20 | 0.04 | 55 | 1020.9 |
| 20260905154904 | 74 | 287 | 14.8 | 24.3 | 0.00 | 0.20 | 0.04 | 57 | 1020.9 |
| 20260905154757 | 74 | 282 | 16.5 | 24.3 | 0.00 | 0.20 | 0.04 | 56 | 1020.9 |
| 20260905154642 | 74 | 280 | 17.4 | 24.3 | 0.00 | 0.20 | 0.04 | 56 | 1020.9 |
| 20260905154544 | 74 | 275 | 17.4 | 24.3 | 0.00 | 0.20 | 0.04 | 56 | 1020.9 |
| 20260905154517 | 74 | 257 | 17.4 | 24.3 | 0.00 | 0.04 | 0.04 | 56 | 1019.7 |
| 20260905154438 | 74 | 270 | 19.1 | 26.1 | 0.00 | 0.20 | 0.04 | 56 | 1020.9 |
| 20260905154339 | 74 | 279 | 18.2 | 26.1 | 0.00 | 0.20 | 0.04 | 56 | 1021.0 |
| 20260905154238 | 74 | 276 | 15.6 | 26.1 | 0.00 | 0.20 | 0.04 | 57 | 1020.9 |
| 20260905154131 | 74 | 266 | 14.8 | 26.1 | 0.00 | 0.20 | 0.04 | 57 | 1020.9 |
| 20260905154015 | 74 | 278 | 16.5 | 26.1 | 0.00 | 0.20 | 0.04 | 57 | 1020.9 |
| 20260905153919 | 74 | 278 | 17.4 | 26.1 | 0.00 | 0.20 | 0.04 | 56 | 1020.8 |
| 20260905153750 | 74 | 259 | 18.2 | 26.1 | 0.00 | 0.20 | 0.04 | 56 | 1020.9 |
| 20260905153633 | 75 | 264 | 17.4 | 26.1 | 0.00 | 0.20 | 0.04 | 56 | 1020.8 |
| 20260905153557 | 74 | 282 | 17.4 | 26.1 | 0.00 | 0.04 | 0.04 | 56 | 1019.6 |
| 20260905153527 | 75 | 278 | 17.4 | 26.1 | 0.00 | 0.20 | 0.04 | 56 | 1020.8 |
| 20260905153426 | 75 | 277 | 19.1 | 26.1 | 0.00 | 0.20 | 0.04 | 56 | 1020.8 |
| 20260905153306 | 75 | 251 | 18.2 | 26.1 | 0.00 | 0.20 | 0.04 | 56 | 1020.8 |
| 20260905153200 | 75 | 267 | 15.6 | 24.3 | 0.00 | 0.20 | 0.04 | 56 | 1020.8 |
| 20260905153101 | 75 | 260 | 14.8 | 22.6 | 0.00 | 0.20 | 0.04 | 56 | 1020.8 |
| 20260905153004 | 75 | 263 | 15.6 | 22.6 | 0.00 | 0.20 | 0.04 | 56 | 1020.8 |
| 20260905152842 | 75 | 286 | 15.6 | 27.8 | 0.00 | 0.20 | 0.04 | 56 | 1020.8 |
| 20260905152734 | 75 | 256 | 17.4 | 27.8 | 0.00 | 0.20 | 0.04 | 57 | 1020.8 |
| 20260905152615 | 75 | 284 | 18.2 | 27.8 | 0.00 | 0.20 | 0.04 | 56 | 1020.8 |
| 20260905152523 | 75 | 273 | 17.4 | 27.8 | 0.00 | 0.20 | 0.04 | 56 | 1020.8 |
| 20260905152412 | 75 | 270 | 13.9 | 27.8 | 0.00 | 0.20 | 0.04 | 57 | 1020.7 |
| 20260905152315 | 75 | 265 | 15.6 | 27.8 | 0.00 | 0.20 | 0.04 | 56 | 1020.7 |
| 20260905152216 | 75 | 269 | 18.2 | 27.8 | 0.00 | 0.20 | 0.04 | 56 | 1020.7 |
| 20260905152149 | 74 | 263 | 18.2 | 27.8 | 0.00 | 0.04 | 0.04 | 56 | 1019.5 |
| 20260905152108 | 75 | 272 | 17.4 | 27.8 | 0.00 | 0.20 | 0.04 | 56 | 1020.6 |
| 20260905152010 | 75 | 262 | 14.8 | 21.7 | 0.00 | 0.20 | 0.04 | 56 | 1020.7 |
| 20260905151910 | 75 | 268 | 12.2 | 21.7 | 0.00 | 0.20 | 0.04 | 56 | 1020.7 |
| 20260905151807 | 75 | 243 | 14.8 | 25.2 | 0.00 | 0.20 | 0.04 | 57 | 1020.7 |
| 20260905151710 | 75 | 263 | 15.6 | 25.2 | 0.00 | 0.20 | 0.04 | 57 | 1020.7 |
| 20260905151612 | 75 | 267 | 15.6 | 25.2 | 0.00 | 0.20 | 0.04 | 57 | 1020.7 |
| 20260905151543 | 74 | 272 | 14.8 | 25.2 | 0.00 | 0.04 | 0.04 | 57 | 1019.5 |
| 20260905151505 | 75 | 269 | 15.6 | 25.2 | 0.00 | 0.20 | 0.04 | 57 | 1020.6 |
| 20260905151405 | 75 | 278 | 14.8 | 25.2 | 0.00 | 0.20 | 0.04 | 57 | 1020.7 |
| 20260905151307 | 75 | 282 | 13.9 | 25.2 | 0.00 | 0.20 | 0.04 | 56 | 1020.7 |
| 20260905151201 | 75 | 257 | 15.6 | 25.2 | 0.00 | 0.20 | 0.04 | 56 | 1020.7 |
| 20260905151103 | 75 | 238 | 17.4 | 25.2 | 0.00 | 0.20 | 0.04 | 56 | 1020.8 |
| 20260905151006 | 75 | 273 | 17.4 | 25.2 | 0.00 | 0.20 | 0.04 | 56 | 1020.6 |
| 20260905150857 | 75 | 278 | 15.6 | 25.2 | 0.00 | 0.20 | 0.04 | 56 | 1020.7 |
| 20260905150758 | 75 | 264 | 13.9 | 25.2 | 0.00 | 0.20 | 0.04 | 57 | 1020.6 |
| 20260905150701 | 75 | 269 | 15.6 | 25.2 | 0.00 | 0.20 | 0.04 | 57 | 1020.7 |
| 20260905150621 | 75 | 283 | 16.5 | 25.2 | 0.00 | 0.20 | 0.04 | 57 | 1020.7 |
| 20260905150529 | 75 | 262 | 16.5 | 25.2 | 0.00 | 0.20 | 0.04 | 57 | 1020.6 |
| 20260905150357 | 75 | 256 | 14.8 | 23.5 | 0.00 | 0.20 | 0.04 | 57 | 1020.7 |
| 20260905150259 | 75 | 268 | 15.6 | 23.5 | 0.00 | 0.20 | 0.04 | 58 | 1020.7 |
| 20260905150132 | 75 | 253 | 16.5 | 23.5 | 0.00 | 0.20 | 0.04 | 57 | 1020.6 |
| 20260905150037 | 75 | 272 | 15.6 | 21.7 | 0.00 | 0.20 | 0.04 | 58 | 1020.7 |
| 20260905145937 | 75 | 250 | 15.6 | 21.7 | 0.00 | 0.20 | 0.04 | 57 | 1020.7 |
| 20260905145813 | 74 | 259 | 14.8 | 21.7 | 0.00 | 0.20 | 0.04 | 58 | 1020.8 |
| 20260905145633 | 74 | 254 | 13.9 | 21.7 | 0.00 | 0.20 | 0.04 | 59 | 1020.7 |
| 20260905145607 | 74 | 280 | 13.9 | 20.0 | 0.00 | 0.04 | 0.04 | 59 | 1019.5 |
| 20260905145526 | 74 | 249 | 15.6 | 20.0 | 0.00 | 0.20 | 0.04 | 58 | 1020.7 |
| 20260905145430 | 74 | 262 | 15.6 | 20.0 | 0.00 | 0.20 | 0.04 | 59 | 1020.6 |
| 20260905145329 | 74 | 274 | 14.8 | 20.9 | 0.00 | 0.20 | 0.04 | 59 | 1020.6 |
| 20260905145221 | 74 | 256 | 14.8 | 20.9 | 0.00 | 0.20 | 0.04 | 60 | 1020.7 |
| 20260905145127 | 74 | 271 | 13.9 | 20.9 | 0.00 | 0.20 | 0.04 | 60 | 1020.8 |
| 20260905145028 | 73 | 253 | 13.9 | 20.9 | 0.00 | 0.20 | 0.04 | 60 | 1020.7 |
| 20260905144919 | 73 | 279 | 13.0 | 20.9 | 0.00 | 0.20 | 0.04 | 60 | 1020.8 |
| 20260905144819 | 73 | 280 | 13.0 | 20.9 | 0.00 | 0.20 | 0.04 | 60 | 1020.9 |
| 20260905144720 | 73 | 306 | 14.8 | 20.9 | 0.00 | 0.20 | 0.04 | 59 | 1020.9 |
| 20260905144627 | 72 | 280 | 13.9 | 20.9 | 0.00 | 0.04 | 0.04 | 59 | 1019.6 |
| 20260905144551 | 73 | 276 | 15.6 | 20.9 | 0.00 | 0.20 | 0.04 | 59 | 1020.7 |
| 20260905144453 | 73 | 280 | 15.6 | 20.9 | 0.00 | 0.20 | 0.04 | 59 | 1020.9 |
| 20260905144357 | 73 | 276 | 14.8 | 22.6 | 0.00 | 0.20 | 0.04 | 59 | 1020.8 |
| 20260905144259 | 73 | 273 | 13.9 | 22.6 | 0.00 | 0.20 | 0.04 | 59 | 1020.8 |
| 20260905144131 | 73 | 271 | 13.9 | 22.6 | 0.00 | 0.20 | 0.04 | 59 | 1020.9 |
| 20260905144033 | 73 | 267 | 15.6 | 22.6 | 0.00 | 0.20 | 0.04 | 59 | 1020.9 |
| 20260905143911 | 73 | 272 | 14.8 | 22.6 | 0.00 | 0.20 | 0.04 | 59 | 1020.9 |
| 20260905143805 | 73 | 238 | 13.0 | 22.6 | 0.00 | 0.20 | 0.04 | 59 | 1020.9 |
| 20260905143650 | 74 | 259 | 13.0 | 22.6 | 0.00 | 0.20 | 0.04 | 60 | 1021.0 |
| 20260905143552 | 74 | 255 | 14.8 | 22.6 | 0.00 | 0.20 | 0.04 | 59 | 1020.9 |
| 20260905143525 | 73 | 261 | 14.8 | 22.6 | 0.00 | 0.04 | 0.04 | 59 | 1019.6 |
| 20260905143445 | 74 | 267 | 14.8 | 22.6 | 0.00 | 0.20 | 0.04 | 58 | 1020.9 |
| 20260905143346 | 74 | 285 | 14.8 | 20.9 | 0.00 | 0.20 | 0.04 | 58 | 1020.9 |
| 20260905143247 | 74 | 286 | 15.6 | 20.9 | 0.00 | 0.20 | 0.04 | 58 | 1020.8 |
| 20260905143157 | 73 | 276 | 14.8 | 21.7 | 0.00 | 0.04 | 0.04 | 58 | 1019.5 |
| 20260905143120 | 74 | 276 | 14.8 | 21.7 | 0.00 | 0.20 | 0.04 | 58 | 1020.7 |
| 20260905143021 | 74 | 282 | 16.5 | 21.7 | 0.00 | 0.20 | 0.04 | 58 | 1020.9 |
| 20260905142927 | 74 | 292 | 15.6 | 23.5 | 0.00 | 0.20 | 0.04 | 58 | 1020.8 |
| 20260905142818 | 74 | 254 | 16.5 | 23.5 | 0.00 | 0.20 | 0.04 | 58 | 1020.9 |
| 20260905142719 | 74 | 272 | 16.5 | 23.5 | 0.00 | 0.20 | 0.04 | 57 | 1020.7 |
| 20260905142621 | 75 | 272 | 16.5 | 23.5 | 0.00 | 0.20 | 0.04 | 57 | 1020.7 |
| 20260905142543 | 74 | 276 | 16.5 | 23.5 | 0.00 | 0.04 | 0.04 | 57 | 1019.6 |
| 20260905142452 | 75 | 251 | 16.5 | 23.5 | 0.00 | 0.20 | 0.04 | 57 | 1020.9 |
| 20260905142353 | 75 | 271 | 17.4 | 23.5 | 0.00 | 0.20 | 0.04 | 57 | 1020.8 |
| 20260905142300 | 75 | 276 | 18.2 | 23.5 | 0.00 | 0.20 | 0.04 | 57 | 1020.9 |
| 20260905142159 | 75 | 269 | 17.4 | 23.5 | 0.00 | 0.20 | 0.04 | 57 | 1020.8 |
| 20260905142136 | 74 | 259 | 16.5 | 23.5 | 0.00 | 0.04 | 0.04 | 56 | 1019.5 |
| 20260905142051 | 75 | 251 | 16.5 | 23.5 | 0.00 | 0.20 | 0.04 | 57 | 1020.7 |
| 20260905141953 | 75 | 209 | 15.6 | 22.6 | 0.00 | 0.20 | 0.04 | 57 | 1020.8 |
| 20260905141841 | 75 | 251 | 17.4 | 22.6 | 0.00 | 0.20 | 0.04 | 56 | 1020.8 |
| 20260905141743 | 75 | 265 | 17.4 | 22.6 | 0.00 | 0.20 | 0.04 | 56 | 1020.7 |
| 20260905141646 | 75 | 265 | 15.6 | 20.9 | 0.00 | 0.20 | 0.04 | 56 | 1020.8 |
| 20260905141552 | 75 | 270 | 14.8 | 20.9 | 0.00 | 0.20 | 0.04 | 56 | 1020.7 |
| 20260905141525 | 75 | 252 | 14.8 | 20.9 | 0.00 | 0.04 | 0.04 | 56 | 1019.5 |
| 20260905141313 | 75 | 251 | 15.6 | 20.9 | 0.00 | 0.20 | 0.04 | 57 | 1020.8 |
| 20260905141214 | 75 | 267 | 15.6 | 21.7 | 0.00 | 0.20 | 0.04 | 57 | 1020.8 |
| 20260905141150 | 75 | 244 | 13.9 | 21.7 | 0.00 | 0.04 | 0.04 | 57 | 1019.5 |
| 20260905141044 | 75 | 256 | 13.9 | 21.7 | 0.00 | 0.20 | 0.04 | 57 | 1020.9 |
| 20260905140947 | 75 | 255 | 14.8 | 21.7 | 0.00 | 0.20 | 0.04 | 57 | 1020.8 |
| 20260905140824 | 75 | 265 | 12.2 | 21.7 | 0.00 | 0.20 | 0.04 | 58 | 1020.8 |
| 20260905140720 | 75 | 258 | 12.2 | 21.7 | 0.00 | 0.20 | 0.04 | 58 | 1020.8 |
| 20260905140622 | 75 | 263 | 13.0 | 21.7 | 0.00 | 0.20 | 0.04 | 57 | 1020.9 |
| 20260905140525 | 75 | 268 | 15.6 | 21.7 | 0.00 | 0.20 | 0.04 | 57 | 1020.8 |
| 20260905140355 | 75 | 251 | 15.6 | 21.7 | 0.00 | 0.20 | 0.04 | 58 | 1020.8 |
| 20260905140257 | 75 | 263 | 14.8 | 24.3 | 0.00 | 0.20 | 0.04 | 58 | 1020.7 |
| 20260905140156 | 75 | 269 | 14.8 | 24.3 | 0.00 | 0.20 | 0.04 | 58 | 1020.7 |
| 20260905140130 | 74 | 255 | 14.8 | 24.3 | 0.00 | 0.04 | 0.04 | 58 | 1019.5 |
| 20260905140034 | 75 | 272 | 14.8 | 25.2 | 0.00 | 0.20 | 0.04 | 58 | 1020.8 |
| 20260905135934 | 74 | 284 | 15.6 | 25.2 | 0.00 | 0.20 | 0.04 | 58 | 1020.7 |
| 20260905135825 | 74 | 261 | 16.5 | 25.2 | 0.00 | 0.20 | 0.04 | 57 | 1020.7 |
| 20260905135727 | 74 | 253 | 15.6 | 25.2 | 0.00 | 0.20 | 0.04 | 57 | 1020.8 |
| 20260905135629 | 74 | 269 | 15.6 | 25.2 | 0.00 | 0.20 | 0.04 | 57 | 1020.7 |
| 20260905135558 | 74 | 274 | 15.6 | 25.2 | 0.00 | 0.04 | 0.04 | 57 | 1019.6 |
| 20260905135523 | 75 | 280 | 17.4 | 25.2 | 0.00 | 0.20 | 0.04 | 57 | 1020.8 |
| 20260905135427 | 75 | 270 | 18.2 | 25.2 | 0.00 | 0.20 | 0.04 | 57 | 1020.7 |
| 20260905135307 | 75 | 255 | 18.2 | 25.2 | 0.00 | 0.20 | 0.04 | 57 | 1020.7 |
| 20260905135154 | 75 | 269 | 17.4 | 24.3 | 0.00 | 0.20 | 0.04 | 57 | 1020.7 |
| 20260905135055 | 75 | 257 | 18.2 | 24.3 | 0.00 | 0.20 | 0.04 | 57 | 1020.8 |
| 20260905134958 | 75 | 251 | 17.4 | 24.3 | 0.00 | 0.20 | 0.04 | 57 | 1020.8 |
| 20260905134848 | 75 | 257 | 17.4 | 24.3 | 0.00 | 0.20 | 0.04 | 56 | 1020.9 |
| 20260905134734 | 75 | 252 | 18.2 | 24.3 | 0.00 | 0.20 | 0.04 | 57 | 1020.8 |
| 20260905134639 | 75 | 295 | 17.4 | 23.5 | 0.00 | 0.20 | 0.04 | 57 | 1020.8 |
| 20260905134617 | 74 | 257 | 17.4 | 23.5 | 0.00 | 0.04 | 0.04 | 57 | 1019.5 |
| 20260905134531 | 75 | 265 | 17.4 | 23.5 | 0.00 | 0.20 | 0.04 | 57 | 1020.9 |
| 20260905134410 | 75 | 267 | 18.2 | 23.5 | 0.00 | 0.20 | 0.04 | 56 | 1020.9 |
| 20260905134312 | 75 | 259 | 18.2 | 23.5 | 0.00 | 0.20 | 0.04 | 56 | 1020.9 |
| 20260905134202 | 75 | 261 | 17.4 | 23.5 | 0.00 | 0.20 | 0.04 | 56 | 1020.9 |
| 20260905133918 | 75 | 257 | 15.6 | 22.6 | 0.00 | 0.20 | 0.04 | 57 | 1021.0 |
| 20260905133812 | 74 | 279 | 15.6 | 21.7 | 0.00 | 0.20 | 0.04 | 56 | 1020.9 |
| 20260905133715 | 75 | 272 | 14.8 | 21.7 | 0.00 | 0.20 | 0.04 | 56 | 1021.1 |
| 20260905133616 | 75 | 278 | 13.9 | 19.1 | 0.00 | 0.20 | 0.04 | 58 | 1021.0 |
| 20260905133555 | 74 | 291 | 13.9 | 19.1 | 0.00 | 0.04 | 0.04 | 58 | 1019.7 |
| 20260905133509 | 74 | 255 | 13.9 | 20.0 | 0.00 | 0.20 | 0.04 | 58 | 1021.0 |
| 20260905133408 | 74 | 270 | 13.9 | 20.0 | 0.00 | 0.20 | 0.04 | 57 | 1021.0 |
| 20260905133309 | 74 | 265 | 13.9 | 20.0 | 0.00 | 0.20 | 0.04 | 58 | 1021.0 |
| 20260905133204 | 74 | 274 | 11.3 | 18.2 | 0.00 | 0.20 | 0.04 | 59 | 1021.1 |
| 20260905133045 | 74 | 282 | 11.3 | 20.0 | 0.00 | 0.20 | 0.04 | 58 | 1020.9 |
| 20260905132948 | 74 | 276 | 12.2 | 20.0 | 0.00 | 0.20 | 0.04 | 59 | 1021.0 |
| 20260905132839 | 74 | 272 | 13.0 | 20.0 | 0.00 | 0.20 | 0.04 | 58 | 1021.0 |
| 20260905132740 | 74 | 258 | 13.0 | 20.0 | 0.00 | 0.20 | 0.04 | 58 | 1021.1 |
| 20260905132643 | 74 | 260 | 13.0 | 20.0 | 0.00 | 0.20 | 0.04 | 58 | 1021.1 |
| 20260905132618 | 74 | 313 | 13.0 | 20.0 | 0.00 | 0.04 | 0.04 | 58 | 1019.8 |
| 20260905132539 | 74 | 272 | 13.0 | 20.0 | 0.00 | 0.20 | 0.04 | 58 | 1021.2 |
| 20260905132438 | 74 | 261 | 13.9 | 20.0 | 0.00 | 0.20 | 0.04 | 58 | 1021.2 |
| 20260905132319 | 74 | 264 | 13.9 | 20.0 | 0.00 | 0.20 | 0.04 | 58 | 1021.2 |
| 20260905132211 | 74 | 268 | 11.3 | 20.0 | 0.00 | 0.20 | 0.04 | 59 | 1021.2 |
| 20260905132113 | 74 | 282 | 11.3 | 20.0 | 0.00 | 0.20 | 0.04 | 59 | 1021.2 |
| 20260905131953 | 74 | 262 | 11.3 | 20.0 | 0.00 | 0.20 | 0.04 | 59 | 1021.2 |
| 20260905131844 | 74 | 261 | 11.3 | 20.0 | 0.00 | 0.20 | 0.04 | 59 | 1021.2 |
| 20260905131749 | 74 | 266 | 13.0 | 20.0 | 0.00 | 0.20 | 0.04 | 59 | 1021.3 |
| 20260905131652 | 74 | 260 | 13.9 | 20.0 | 0.00 | 0.20 | 0.04 | 59 | 1021.2 |
| 20260905131621 | 73 | 287 | 13.9 | 20.0 | 0.00 | 0.04 | 0.04 | 59 | 1019.9 |
| 20260905131546 | 74 | 269 | 13.9 | 20.0 | 0.00 | 0.20 | 0.04 | 59 | 1021.2 |
| 20260905131427 | 73 | 273 | 13.0 | 20.0 | 0.00 | 0.20 | 0.04 | 59 | 1021.3 |
| 20260905131327 | 73 | 276 | 13.9 | 20.0 | 0.00 | 0.20 | 0.04 | 59 | 1021.2 |
| 20260905131218 | 73 | 269 | 13.9 | 20.0 | 0.00 | 0.20 | 0.04 | 59 | 1021.4 |
| 20260905131124 | 73 | 252 | 13.9 | 20.9 | 0.00 | 0.20 | 0.04 | 58 | 1021.4 |
| 20260905131027 | 73 | 267 | 14.8 | 21.7 | 0.00 | 0.20 | 0.04 | 60 | 1021.3 |
| 20260905130917 | 73 | 272 | 14.8 | 21.7 | 0.00 | 0.20 | 0.04 | 59 | 1021.3 |
| 20260905130757 | 73 | 287 | 14.8 | 24.3 | 0.00 | 0.20 | 0.04 | 59 | 1021.3 |
| 20260905130659 | 73 | 281 | 14.8 | 24.3 | 0.00 | 0.20 | 0.04 | 58 | 1021.3 |
| 20260905130625 | 73 | 259 | 14.8 | 24.3 | 0.00 | 0.04 | 0.04 | 59 | 1020.0 |
| 20260905130551 | 74 | 272 | 14.8 | 24.3 | 0.00 | 0.20 | 0.04 | 59 | 1021.3 |
| 20260905130437 | 74 | 269 | 16.5 | 24.3 | 0.00 | 0.20 | 0.04 | 59 | 1021.2 |
| 20260905130327 | 73 | 263 | 15.6 | 24.3 | 0.00 | 0.20 | 0.04 | 60 | 1021.3 |
| 20260905130145 | 73 | 278 | 14.8 | 24.3 | 0.00 | 0.20 | 0.04 | 60 | 1021.3 |
| 20260905130047 | 73 | 259 | 15.6 | 24.3 | 0.00 | 0.20 | 0.04 | 59 | 1021.4 |
| 20260905130010 | 73 | 286 | 13.9 | 21.7 | 0.00 | 0.04 | 0.04 | 59 | 1020.1 |
| 20260905125940 | 73 | 280 | 13.9 | 21.7 | 0.00 | 0.20 | 0.04 | 60 | 1021.4 |
| 20260905125839 | 73 | 277 | 15.6 | 21.7 | 0.00 | 0.20 | 0.04 | 59 | 1021.4 |
| 20260905125719 | 73 | 262 | 16.5 | 21.7 | 0.00 | 0.20 | 0.04 | 60 | 1021.4 |
| 20260905125644 | 73 | 275 | 15.6 | 26.1 | 0.00 | 0.04 | 0.04 | 60 | 1020.1 |
| 20260905125615 | 74 | 305 | 15.6 | 26.1 | 0.00 | 0.20 | 0.04 | 60 | 1021.5 |
| 20260905125518 | 74 | 271 | 17.4 | 26.1 | 0.00 | 0.20 | 0.04 | 59 | 1021.5 |
| 20260905125418 | 73 | 281 | 14.8 | 26.1 | 0.00 | 0.20 | 0.04 | 60 | 1021.4 |
| 20260905125309 | 73 | 278 | 13.9 | 26.1 | 0.00 | 0.20 | 0.04 | 60 | 1021.4 |
| 20260905125210 | 73 | 261 | 15.6 | 26.1 | 0.00 | 0.20 | 0.04 | 60 | 1021.4 |
| 20260905125051 | 73 | 255 | 14.8 | 26.1 | 0.00 | 0.20 | 0.04 | 60 | 1021.4 |
| 20260905124957 | 73 | 280 | 15.6 | 26.1 | 0.00 | 0.20 | 0.04 | 60 | 1021.5 |
| 20260905124848 | 73 | 294 | 15.6 | 26.1 | 0.00 | 0.20 | 0.04 | 60 | 1021.5 |
| 20260905124750 | 73 | 276 | 15.6 | 22.6 | 0.00 | 0.20 | 0.04 | 60 | 1021.5 |
| 20260905124653 | 73 | 272 | 17.4 | 22.6 | 0.00 | 0.20 | 0.04 | 60 | 1021.5 |
| 20260905124620 | 73 | 264 | 16.5 | 22.6 | 0.00 | 0.04 | 0.04 | 60 | 1020.3 |
| 20260905124546 | 73 | 274 | 16.5 | 21.7 | 0.00 | 0.20 | 0.04 | 60 | 1021.5 |
| 20260905124449 | 73 | 265 | 15.6 | 21.7 | 0.00 | 0.20 | 0.04 | 61 | 1021.5 |
| 20260905124347 | 73 | 276 | 14.8 | 20.0 | 0.00 | 0.20 | 0.04 | 60 | 1021.5 |
| 20260905124231 | 73 | 282 | 13.0 | 21.7 | 0.00 | 0.20 | 0.04 | 60 | 1021.5 |
| 20260905124123 | 73 | 299 | 14.8 | 21.7 | 0.00 | 0.20 | 0.04 | 60 | 1021.4 |
| 20260905124025 | 74 | 265 | 14.8 | 21.7 | 0.00 | 0.20 | 0.04 | 60 | 1021.5 |
| 20260905123929 | 74 | 262 | 14.8 | 21.7 | 0.00 | 0.20 | 0.04 | 60 | 1021.5 |
| 20260905123819 | 74 | 277 | 13.9 | 21.7 | 0.00 | 0.20 | 0.04 | 60 | 1021.5 |
| 20260905123722 | 74 | 253 | 13.0 | 21.7 | 0.00 | 0.20 | 0.04 | 62 | 1021.5 |
| 20260905123627 | 74 | 269 | 13.9 | 21.7 | 0.00 | 0.20 | 0.04 | 61 | 1021.5 |
| 20260905123554 | 73 | 245 | 13.9 | 21.7 | 0.00 | 0.04 | 0.04 | 61 | 1020.2 |
| 20260905123521 | 74 | 258 | 15.6 | 21.7 | 0.00 | 0.20 | 0.04 | 61 | 1021.5 |
| 20260905123419 | 73 | 255 | 15.6 | 21.7 | 0.00 | 0.20 | 0.04 | 62 | 1021.5 |
| 20260905123321 | 73 | 279 | 13.9 | 21.7 | 0.00 | 0.20 | 0.04 | 62 | 1021.5 |
| 20260905123020 | 73 | 272 | 16.5 | 21.7 | 0.00 | 0.20 | 0.04 | 61 | 1021.6 |
| 20260905122923 | 73 | 273 | 15.6 | 21.7 | 0.00 | 0.20 | 0.04 | 61 | 1021.4 |
| 20260905122815 | 73 | 261 | 14.8 | 21.7 | 0.00 | 0.20 | 0.04 | 61 | 1021.5 |
| 20260905122717 | 73 | 278 | 14.8 | 21.7 | 0.00 | 0.20 | 0.04 | 62 | 1021.5 |
| 20260905122620 | 73 | 288 | 14.8 | 23.5 | 0.00 | 0.20 | 0.04 | 62 | 1021.5 |
| 20260905122543 | 72 | 257 | 14.8 | 23.5 | 0.00 | 0.04 | 0.04 | 61 | 1020.2 |
| 20260905122514 | 73 | 265 | 15.6 | 26.1 | 0.00 | 0.20 | 0.04 | 61 | 1021.5 |
| 20260905122414 | 73 | 277 | 15.6 | 26.1 | 0.00 | 0.20 | 0.04 | 62 | 1021.5 |
| 20260905122315 | 73 | 271 | 13.9 | 26.1 | 0.00 | 0.20 | 0.04 | 63 | 1021.5 |
| 20260905122144 | 72 | 259 | 13.9 | 26.1 | 0.00 | 0.20 | 0.04 | 65 | 1021.5 |
| 20260905122049 | 72 | 276 | 15.6 | 26.1 | 0.00 | 0.20 | 0.04 | 64 | 1021.5 |
| 20260905121951 | 72 | 249 | 16.5 | 26.1 | 0.00 | 0.20 | 0.04 | 64 | 1021.5 |
| 20260905121841 | 72 | 280 | 18.2 | 26.1 | 0.00 | 0.20 | 0.04 | 64 | 1021.5 |
| 20260905121743 | 72 | 246 | 20.0 | 26.1 | 0.00 | 0.20 | 0.04 | 64 | 1021.5 |
| 20260905121645 | 72 | 255 | 18.2 | 26.1 | 0.00 | 0.20 | 0.04 | 64 | 1021.8 |
| 20260905121609 | 71 | 244 | 15.6 | 23.5 | 0.00 | 0.04 | 0.04 | 64 | 1020.4 |
| 20260905121538 | 72 | 238 | 15.6 | 20.9 | 0.00 | 0.20 | 0.04 | 64 | 1021.6 |
| 20260905121445 | 72 | 268 | 16.5 | 20.9 | 0.00 | 0.20 | 0.04 | 64 | 1021.6 |
| 20260905121345 | 72 | 256 | 14.8 | 21.7 | 0.00 | 0.20 | 0.04 | 65 | 1021.5 |
| 20260905121245 | 72 | 259 | 14.8 | 21.7 | 0.00 | 0.20 | 0.04 | 64 | 1021.6 |
| 20260905121138 | 72 | 276 | 14.8 | 21.7 | 0.00 | 0.20 | 0.04 | 65 | 1021.5 |
| 20260905121040 | 72 | 268 | 13.9 | 21.7 | 0.00 | 0.20 | 0.04 | 66 | 1021.5 |
| 20260905120942 | 72 | 277 | 12.2 | 21.7 | 0.00 | 0.20 | 0.04 | 66 | 1021.5 |
| 20260905120833 | 72 | 234 | 12.2 | 21.7 | 0.00 | 0.20 | 0.04 | 66 | 1021.5 |
| 20260905120719 | 72 | 289 | 14.8 | 21.7 | 0.00 | 0.20 | 0.04 | 65 | 1021.5 |
| 20260905120620 | 72 | 278 | 16.5 | 21.7 | 0.00 | 0.20 | 0.04 | 65 | 1021.5 |
| 20260905120550 | 71 | 273 | 15.6 | 21.7 | 0.00 | 0.04 | 0.04 | 65 | 1020.1 |
| 20260905120513 | 72 | 245 | 15.6 | 21.7 | 0.00 | 0.20 | 0.04 | 66 | 1021.5 |
| 20260905120412 | 72 | 263 | 14.8 | 23.5 | 0.00 | 0.20 | 0.04 | 66 | 1021.5 |
| 20260905120252 | 72 | 278 | 15.6 | 23.5 | 0.00 | 0.20 | 0.04 | 65 | 1021.6 |
| 20260905120144 | 72 | 259 | 14.8 | 23.5 | 0.00 | 0.20 | 0.04 | 65 | 1021.5 |
| 20260905120051 | 72 | 272 | 12.2 | 23.5 | 0.00 | 0.20 | 0.04 | 65 | 1021.5 |
| 20260905115907 | 72 | 259 | 15.6 | 23.5 | 0.00 | 0.20 | 0.04 | 64 | 1021.5 |
| 20260905115809 | 71 | 266 | 17.4 | 23.5 | 0.00 | 0.20 | 0.04 | 65 | 1021.4 |
| 20260905115640 | 71 | 274 | 17.4 | 23.5 | 0.00 | 0.20 | 0.04 | 65 | 1021.4 |
| 20260905115542 | 71 | 274 | 15.6 | 20.9 | 0.00 | 0.20 | 0.04 | 66 | 1021.4 |
| 20260905115445 | 71 | 276 | 14.8 | 22.6 | 0.00 | 0.20 | 0.04 | 65 | 1021.4 |
| 20260905115335 | 71 | 251 | 14.8 | 22.6 | 0.00 | 0.20 | 0.04 | 66 | 1021.5 |
| 20260905115219 | 71 | 270 | 13.9 | 22.6 | 0.00 | 0.20 | 0.04 | 66 | 1021.5 |
| 20260905115120 | 71 | 246 | 13.9 | 22.6 | 0.00 | 0.20 | 0.04 | 66 | 1021.5 |
| 20260905115033 | 70 | 272 | 13.9 | 22.6 | 0.00 | 0.04 | 0.04 | 67 | 1020.1 |
| 20260905114953 | 71 | 237 | 15.6 | 22.6 | 0.00 | 0.20 | 0.04 | 65 | 1021.5 |
| 20260905114832 | 71 | 290 | 16.5 | 22.6 | 0.00 | 0.20 | 0.04 | 66 | 1021.5 |
| 20260905114704 | 71 | 269 | 16.5 | 24.3 | 0.00 | 0.20 | 0.04 | 66 | 1021.6 |
| 20260905114544 | 71 | 279 | 15.6 | 24.3 | 0.00 | 0.20 | 0.04 | 67 | 1021.7 |
| 20260905114450 | 71 | 271 | 14.8 | 24.3 | 0.00 | 0.20 | 0.04 | 67 | 1021.6 |
| 20260905114341 | 71 | 276 | 13.0 | 24.3 | 0.00 | 0.20 | 0.04 | 66 | 1021.6 |
| 20260905114241 | 71 | 268 | 13.0 | 24.3 | 0.00 | 0.20 | 0.04 | 65 | 1021.5 |
| 20260905114045 | 71 | 276 | 14.8 | 24.3 | 0.00 | 0.04 | 0.04 | 64 | 1020.3 |
| 20260905114005 | 71 | 265 | 16.5 | 24.3 | 0.00 | 0.20 | 0.04 | 64 | 1021.5 |
| 20260905113844 | 71 | 281 | 14.8 | 24.3 | 0.00 | 0.20 | 0.04 | 67 | 1021.5 |
| 20260905113747 | 71 | 279 | 12.2 | 21.7 | 0.00 | 0.20 | 0.04 | 66 | 1021.5 |
| 20260905113643 | 71 | 272 | 12.2 | 22.6 | 0.00 | 0.20 | 0.04 | 68 | 1021.6 |
| 20260905113524 | 71 | 264 | 13.0 | 22.6 | 0.00 | 0.20 | 0.04 | 68 | 1021.6 |
| 20260905113425 | 71 | 269 | 14.8 | 22.6 | 0.00 | 0.20 | 0.04 | 66 | 1021.6 |
| 20260905113256 | 71 | 291 | 13.9 | 22.6 | 0.00 | 0.20 | 0.04 | 66 | 1021.7 |
| 20260905113157 | 71 | 295 | 14.8 | 22.6 | 0.00 | 0.20 | 0.04 | 68 | 1021.7 |
| 20260905113039 | 71 | 271 | 16.5 | 22.6 | 0.00 | 0.20 | 0.04 | 67 | 1021.6 |
| 20260905112946 | 71 | 257 | 15.6 | 22.6 | 0.00 | 0.20 | 0.04 | 68 | 1021.8 |
| 20260905112815 | 71 | 263 | 13.0 | 22.6 | 0.00 | 0.20 | 0.04 | 70 | 1021.7 |
| 20260905112717 | 71 | 287 | 12.2 | 21.7 | 0.00 | 0.20 | 0.04 | 69 | 1021.7 |
| 20260905112556 | 71 | 280 | 13.0 | 21.7 | 0.00 | 0.20 | 0.04 | 68 | 1021.8 |
| 20260905112531 | 70 | 251 | 12.2 | 21.7 | 0.00 | 0.04 | 0.04 | 68 | 1020.5 |
| 20260905112315 | 71 | 272 | 13.0 | 21.7 | 0.00 | 0.20 | 0.04 | 70 | 1021.8 |
| 20260905112146 | 70 | 272 | 12.2 | 21.7 | 0.00 | 0.20 | 0.04 | 71 | 1021.8 |
| 20260905112053 | 70 | 269 | 13.0 | 21.7 | 0.00 | 0.20 | 0.04 | 71 | 1021.8 |
| 20260905111955 | 70 | 255 | 13.0 | 24.3 | 0.00 | 0.20 | 0.04 | 70 | 1021.8 |
| 20260905111855 | 70 | 265 | 16.5 | 24.3 | 0.00 | 0.20 | 0.04 | 71 | 1021.9 |
| 20260905111725 | 69 | 263 | 15.6 | 24.3 | 0.00 | 0.20 | 0.04 | 72 | 1021.7 |
| 20260905111606 | 69 | 257 | 13.9 | 24.3 | 0.00 | 0.20 | 0.04 | 73 | 1021.8 |
| 20260905111508 | 69 | 273 | 14.8 | 24.3 | 0.00 | 0.20 | 0.04 | 72 | 1021.8 |
| 20260905111359 | 69 | 264 | 16.5 | 24.3 | 0.00 | 0.20 | 0.04 | 73 | 1021.8 |
| 20260905111306 | 69 | 268 | 17.4 | 24.3 | 0.00 | 0.20 | 0.04 | 72 | 1021.8 |
| 20260905111207 | 68 | 277 | 14.8 | 20.9 | 0.00 | 0.20 | 0.04 | 74 | 1021.8 |
| 20260905111141 | 68 | 270 | 13.0 | 20.9 | 0.00 | 0.04 | 0.04 | 74 | 1020.4 |
| 20260905111101 | 68 | 249 | 13.9 | 20.9 | 0.00 | 0.20 | 0.04 | 75 | 1021.8 |
| 20260905111003 | 68 | 282 | 14.8 | 20.9 | 0.00 | 0.20 | 0.04 | 75 | 1021.8 |
| 20260905110903 | 68 | 272 | 13.9 | 19.1 | 0.00 | 0.20 | 0.04 | 76 | 1021.7 |
| 20260905110714 | 68 | 259 | 14.8 | 19.1 | 0.00 | 0.20 | 0.04 | 76 | 1021.8 |
| 20260905110619 | 67 | 259 | 13.9 | 20.0 | 0.00 | 0.20 | 0.04 | 75 | 1021.8 |
| 20260905110458 | 67 | 268 | 12.2 | 20.9 | 0.00 | 0.20 | 0.04 | 76 | 1021.9 |
| 20260905110328 | 67 | 259 | 11.3 | 20.9 | 0.00 | 0.20 | 0.04 | 76 | 1021.9 |
| 20260905110229 | 67 | 265 | 13.0 | 20.9 | 0.00 | 0.20 | 0.04 | 76 | 1022.0 |
| 20260905110110 | 67 | 273 | 13.0 | 20.9 | 0.00 | 0.20 | 0.04 | 75 | 1022.0 |
| 20260905105953 | 67 | 257 | 13.0 | 20.9 | 0.00 | 0.20 | 0.04 | 75 | 1021.9 |
| 20260905105843 | 68 | 266 | 13.9 | 20.9 | 0.00 | 0.20 | 0.04 | 75 | 1022.0 |
| 20260905105749 | 68 | 251 | 13.9 | 20.9 | 0.00 | 0.20 | 0.04 | 75 | 1022.0 |
| 20260905105651 | 68 | 267 | 13.0 | 20.9 | 0.00 | 0.20 | 0.04 | 75 | 1021.9 |
| 20260905105624 | 67 | 280 | 12.2 | 20.9 | 0.00 | 0.04 | 0.04 | 75 | 1020.6 |
| 20260905105544 | 68 | 279 | 12.2 | 18.2 | 0.00 | 0.20 | 0.04 | 76 | 1021.9 |
| 20260905105447 | 68 | 257 | 12.2 | 18.2 | 0.00 | 0.20 | 0.04 | 77 | 1021.9 |
| 20260905105346 | 68 | 275 | 13.9 | 20.0 | 0.00 | 0.20 | 0.04 | 76 | 1022.0 |
| 20260905105238 | 68 | 254 | 13.9 | 20.0 | 0.00 | 0.20 | 0.04 | 75 | 1021.9 |
| 20260905105017 | 68 | 280 | 13.9 | 20.0 | 0.00 | 0.20 | 0.04 | 75 | 1021.9 |
| 20260905104844 | 68 | 271 | 13.0 | 24.3 | 0.00 | 0.20 | 0.04 | 76 | 1021.8 |
| 20260905104725 | 68 | 274 | 14.8 | 24.3 | 0.00 | 0.20 | 0.04 | 77 | 1021.9 |
| 20260905104627 | 68 | 268 | 14.8 | 24.3 | 0.00 | 0.20 | 0.04 | 77 | 1021.9 |
| 20260905104613 | 68 | 284 | 14.8 | 24.3 | 0.00 | 0.04 | 0.04 | 77 | 1020.6 |
| 20260905104521 | 68 | 243 | 14.8 | 24.3 | 0.00 | 0.20 | 0.04 | 78 | 1021.9 |
| 20260905104418 | 68 | 276 | 13.0 | 24.3 | 0.00 | 0.20 | 0.04 | 77 | 1021.9 |
| 20260905104325 | 68 | 276 | 13.0 | 24.3 | 0.00 | 0.20 | 0.04 | 76 | 1021.9 |
| 20260905104225 | 68 | 283 | 15.6 | 24.3 | 0.00 | 0.20 | 0.04 | 76 | 1022.0 |
| 20260905104141 | 67 | 284 | 16.5 | 24.3 | 0.00 | 0.04 | 0.04 | 76 | 1020.7 |
| 20260905104055 | 68 | 265 | 17.4 | 24.3 | 0.00 | 0.20 | 0.04 | 75 | 1022.0 |
| 20260905103957 | 68 | 272 | 14.8 | 20.9 | 0.00 | 0.20 | 0.04 | 77 | 1021.9 |
| 20260905103827 | 68 | 281 | 15.6 | 22.6 | 0.00 | 0.20 | 0.04 | 76 | 1021.9 |
| 20260905103729 | 68 | 261 | 16.5 | 22.6 | 0.00 | 0.20 | 0.04 | 77 | 1021.9 |
| 20260905103631 | 68 | 278 | 14.8 | 22.6 | 0.00 | 0.20 | 0.04 | 76 | 1021.8 |
| 20260905103516 | 68 | 276 | 14.8 | 22.6 | 0.00 | 0.20 | 0.04 | 76 | 1021.8 |
| 20260905103405 | 68 | 278 | 16.5 | 22.6 | 0.00 | 0.20 | 0.04 | 75 | 1021.9 |
| 20260905103307 | 68 | 274 | 15.6 | 22.6 | 0.00 | 0.20 | 0.04 | 77 | 1021.9 |
| 20260905103206 | 68 | 264 | 13.9 | 22.6 | 0.00 | 0.20 | 0.04 | 77 | 1021.9 |
| 20260905103143 | 68 | 269 | 13.9 | 22.6 | 0.00 | 0.04 | 0.04 | 77 | 1020.5 |
| 20260905103059 | 68 | 268 | 14.8 | 22.6 | 0.00 | 0.20 | 0.04 | 77 | 1021.8 |
| 20260905103000 | 68 | 250 | 15.6 | 22.6 | 0.00 | 0.20 | 0.04 | 77 | 1021.9 |
| 20260905102905 | 68 | 266 | 13.9 | 18.2 | 0.00 | 0.20 | 0.04 | 80 | 1021.9 |
| 20260905102757 | 68 | 274 | 11.3 | 18.2 | 0.00 | 0.20 | 0.04 | 80 | 1021.7 |
| 20260905102700 | 68 | 289 | 11.3 | 17.4 | 0.00 | 0.20 | 0.04 | 81 | 1021.7 |
| 20260905102602 | 68 | 276 | 12.2 | 17.4 | 0.00 | 0.20 | 0.04 | 80 | 1021.8 |
| 20260905102531 | 67 | 263 | 12.2 | 17.4 | 0.00 | 0.04 | 0.04 | 80 | 1020.5 |
| 20260905102454 | 68 | 282 | 12.2 | 17.4 | 0.00 | 0.20 | 0.04 | 83 | 1021.9 |
| 20260905102311 | 68 | 264 | 12.2 | 16.5 | 0.00 | 0.20 | 0.04 | 83 | 1021.8 |
| 20260905102203 | 68 | 284 | 10.4 | 15.6 | 0.00 | 0.20 | 0.04 | 82 | 1021.8 |
| 20260905102137 | 67 | 286 | 10.4 | 15.6 | 0.00 | 0.04 | 0.04 | 83 | 1020.5 |
| 20260905102100 | 67 | 247 | 10.4 | 15.6 | 0.00 | 0.20 | 0.04 | 84 | 1021.7 |
| 20260905102001 | 67 | 262 | 11.3 | 15.6 | 0.00 | 0.20 | 0.04 | 84 | 1021.8 |
| 20260905101902 | 67 | 276 | 11.3 | 15.6 | 0.00 | 0.20 | 0.04 | 83 | 1021.7 |
| 20260905101733 | 67 | 273 | 10.4 | 15.6 | 0.00 | 0.20 | 0.04 | 83 | 1021.7 |
| 20260905101635 | 67 | 265 | 10.4 | 15.6 | 0.00 | 0.20 | 0.04 | 83 | 1021.7 |
| 20260905101537 | 67 | 247 | 10.4 | 15.6 | 0.00 | 0.20 | 0.04 | 83 | 1021.7 |
| 20260905101420 | 67 | 265 | 12.2 | 16.5 | 0.00 | 0.20 | 0.04 | 84 | 1021.7 |
| 20260905101250 | 67 | 266 | 11.3 | 16.5 | 0.00 | 0.20 | 0.04 | 85 | 1021.7 |
| 20260905101133 | 67 | 264 | 11.3 | 16.5 | 0.00 | 0.20 | 0.04 | 86 | 1021.7 |
| 20260905101111 | 66 | 257 | 11.3 | 16.5 | 0.00 | 0.04 | 0.04 | 86 | 1020.3 |
| 20260905101025 | 66 | 276 | 12.2 | 16.5 | 0.00 | 0.20 | 0.04 | 86 | 1021.7 |
| 20260905100927 | 66 | 245 | 11.3 | 16.5 | 0.00 | 0.20 | 0.04 | 85 | 1021.8 |
| 20260905100827 | 66 | 278 | 12.2 | 16.5 | 0.00 | 0.20 | 0.04 | 86 | 1021.8 |
| 20260905100723 | 66 | 259 | 13.0 | 16.5 | 0.00 | 0.20 | 0.04 | 87 | 1021.8 |
| 20260905100625 | 66 | 268 | 13.0 | 16.5 | 0.00 | 0.20 | 0.04 | 87 | 1021.8 |
| 20260905100526 | 65 | 251 | 12.2 | 16.5 | 0.00 | 0.20 | 0.04 | 87 | 1021.8 |
| 20260905100416 | 65 | 244 | 13.0 | 16.5 | 0.00 | 0.20 | 0.04 | 87 | 1021.8 |
| 20260905100317 | 65 | 258 | 13.0 | 16.5 | 0.00 | 0.20 | 0.04 | 87 | 1021.8 |
| 20260905100217 | 65 | 263 | 12.2 | 16.5 | 0.00 | 0.20 | 0.04 | 87 | 1021.9 |
| 20260905100126 | 64 | 239 | 11.3 | 16.5 | 0.00 | 0.04 | 0.04 | 87 | 1020.5 |
| 20260905100049 | 65 | 261 | 11.3 | 16.5 | 0.00 | 0.20 | 0.04 | 86 | 1021.9 |
| 20260905095804 | 65 | 282 | 10.4 | 14.8 | 0.00 | 0.20 | 0.04 | 86 | 1021.9 |
| 20260905095658 | 65 | 261 | 10.4 | 13.9 | 0.00 | 0.20 | 0.04 | 86 | 1021.9 |
| 20260905095601 | 65 | 252 | 10.4 | 13.9 | 0.00 | 0.20 | 0.04 | 87 | 1022.0 |
| 20260905095504 | 65 | 255 | 10.4 | 13.9 | 0.00 | 0.20 | 0.04 | 87 | 1021.9 |
| 20260905095355 | 65 | 276 | 10.4 | 13.9 | 0.00 | 0.20 | 0.04 | 87 | 1021.9 |
| 20260905095256 | 65 | 278 | 8.7 | 13.9 | 0.00 | 0.20 | 0.04 | 88 | 1021.9 |
| 20260905095119 | 64 | 269 | 8.7 | 13.9 | 0.00 | 0.20 | 0.04 | 88 | 1022.1 |
| 20260905095021 | 64 | 273 | 8.7 | 13.9 | 0.00 | 0.20 | 0.04 | 88 | 1022.1 |
| 20260905094851 | 64 | 290 | 7.8 | 13.9 | 0.00 | 0.20 | 0.04 | 88 | 1022.1 |
| 20260905094755 | 64 | 269 | 8.7 | 13.9 | 0.00 | 0.20 | 0.04 | 88 | 1022.1 |
| 20260905094719 | 64 | 275 | 9.6 | 13.9 | 0.00 | 0.04 | 0.04 | 88 | 1020.7 |
| 20260905094655 | 64 | 279 | 9.6 | 13.9 | 0.00 | 0.20 | 0.04 | 88 | 1022.1 |
| 20260905094549 | 64 | 290 | 9.6 | 13.9 | 0.00 | 0.20 | 0.04 | 88 | 1022.2 |
| 20260905094454 | 64 | 277 | 8.7 | 13.0 | 0.00 | 0.20 | 0.04 | 87 | 1022.2 |
| 20260905094353 | 64 | 278 | 9.6 | 13.0 | 0.00 | 0.20 | 0.04 | 87 | 1022.2 |
| 20260905094116 | 64 | 287 | 8.7 | 12.2 | 0.00 | 0.20 | 0.04 | 87 | 1022.1 |
| 20260905094019 | 64 | 267 | 7.8 | 12.2 | 0.00 | 0.20 | 0.04 | 88 | 1022.1 |
| 20260905093910 | 64 | 255 | 7.8 | 11.3 | 0.00 | 0.20 | 0.04 | 88 | 1022.0 |
| 20260905093750 | 64 | 272 | 8.7 | 11.3 | 0.00 | 0.20 | 0.04 | 87 | 1022.1 |
| 20260905093655 | 64 | 274 | 8.7 | 11.3 | 0.00 | 0.20 | 0.04 | 87 | 1021.9 |
| 20260905093620 | 63 | 270 | 7.8 | 11.3 | 0.00 | 0.04 | 0.04 | 88 | 1020.6 |
| 20260905093549 | 64 | 257 | 7.8 | 11.3 | 0.00 | 0.20 | 0.04 | 88 | 1022.0 |
| 20260905093452 | 64 | 276 | 7.0 | 11.3 | 0.00 | 0.20 | 0.04 | 88 | 1021.9 |
| 20260905093351 | 64 | 256 | 7.8 | 11.3 | 0.00 | 0.20 | 0.04 | 88 | 1021.9 |
| 20260905093243 | 64 | 263 | 9.6 | 11.3 | 0.00 | 0.20 | 0.04 | 88 | 1021.9 |
| 20260905093145 | 64 | 268 | 9.6 | 11.3 | 0.00 | 0.20 | 0.04 | 88 | 1021.9 |
| 20260905093047 | 63 | 265 | 8.7 | 11.3 | 0.00 | 0.20 | 0.04 | 88 | 1021.9 |
| 20260905092954 | 63 | 275 | 8.7 | 11.3 | 0.00 | 0.20 | 0.04 | 88 | 1021.9 |
| 20260905092842 | 63 | 272 | 8.7 | 11.3 | 0.00 | 0.20 | 0.04 | 88 | 1021.8 |
| 20260905092744 | 63 | 255 | 8.7 | 15.6 | 0.00 | 0.20 | 0.04 | 88 | 1021.7 |
| 20260905092648 | 63 | 269 | 8.7 | 15.6 | 0.00 | 0.20 | 0.04 | 89 | 1021.8 |
| 20260905092625 | 63 | 260 | 7.8 | 15.6 | 0.00 | 0.04 | 0.04 | 89 | 1020.4 |
| 20260905092540 | 63 | 265 | 7.8 | 15.6 | 0.00 | 0.20 | 0.04 | 89 | 1021.8 |
| 20260905092441 | 63 | 259 | 7.8 | 15.6 | 0.00 | 0.20 | 0.04 | 89 | 1021.8 |
| 20260905092343 | 63 | 258 | 8.7 | 15.6 | 0.00 | 0.20 | 0.04 | 89 | 1021.8 |
| 20260905092234 | 63 | 268 | 8.7 | 15.6 | 0.00 | 0.20 | 0.04 | 89 | 1021.9 |
| 20260905092137 | 63 | 259 | 9.6 | 15.6 | 0.00 | 0.20 | 0.04 | 89 | 1021.9 |
| 20260905092019 | 63 | 255 | 11.3 | 15.6 | 0.00 | 0.20 | 0.04 | 89 | 1021.8 |
| 20260905091911 | 63 | 228 | 10.4 | 14.8 | 0.00 | 0.20 | 0.04 | 89 | 1021.9 |
| 20260905091812 | 63 | 246 | 8.7 | 13.0 | 0.00 | 0.20 | 0.04 | 89 | 1021.9 |
| 20260905091654 | 63 | 243 | 8.7 | 13.0 | 0.00 | 0.20 | 0.04 | 89 | 1022.0 |
| 20260905091626 | 63 | 244 | 7.8 | 13.0 | 0.00 | 0.04 | 0.04 | 89 | 1020.6 |
| 20260905091529 | 63 | 247 | 7.8 | 13.0 | 0.00 | 0.20 | 0.04 | 89 | 1022.0 |
| 20260905091431 | 63 | 253 | 7.8 | 13.0 | 0.00 | 0.20 | 0.04 | 89 | 1022.0 |
| 20260905091331 | 63 | 260 | 7.8 | 13.0 | 0.04 | 0.20 | 0.04 | 89 | 1021.9 |
| 20260905091202 | 63 | 256 | 10.4 | 13.0 | 0.04 | 0.20 | 0.04 | 89 | 1022.0 |
| 20260905091104 | 63 | 252 | 10.4 | 13.0 | 0.04 | 0.20 | 0.04 | 89 | 1022.0 |
| 20260905091007 | 63 | 253 | 8.7 | 13.0 | 0.04 | 0.20 | 0.04 | 89 | 1022.0 |
| 20260905090831 | 63 | 270 | 9.6 | 13.0 | 0.04 | 0.20 | 0.04 | 89 | 1022.1 |
| 20260905090732 | 63 | 256 | 9.6 | 13.0 | 0.04 | 0.20 | 0.04 | 90 | 1022.2 |
| 20260905090611 | 63 | 259 | 9.6 | 13.0 | 0.04 | 0.20 | 0.04 | 89 | 1022.2 |
| 20260905090539 | 63 | 269 | 8.7 | 13.9 | 0.01 | 0.04 | 0.04 | 89 | 1020.7 |
| 20260905090504 | 63 | 268 | 9.6 | 13.9 | 0.04 | 0.20 | 0.04 | 90 | 1022.2 |
| 20260905090404 | 63 | 272 | 9.6 | 13.9 | 0.04 | 0.20 | 0.04 | 90 | 1022.2 |
| 20260905090305 | 63 | 257 | 9.6 | 13.9 | 0.04 | 0.20 | 0.04 | 90 | 1022.1 |
| 20260905090154 | 63 | 281 | 9.6 | 13.9 | 0.04 | 0.20 | 0.04 | 90 | 1022.1 |
| 20260905090004 | 63 | 251 | 9.6 | 13.9 | 0.04 | 0.20 | 0.04 | 90 | 1022.1 |
| 20260905085854 | 63 | 277 | 10.4 | 13.9 | 0.04 | 0.20 | 0.04 | 90 | 1022.1 |
| 20260905085755 | 63 | 257 | 11.3 | 13.9 | 0.04 | 0.20 | 0.04 | 90 | 1022.0 |
| 20260905085658 | 63 | 266 | 11.3 | 13.9 | 0.04 | 0.20 | 0.04 | 90 | 1022.0 |
| 20260905085624 | 62 | 270 | 10.4 | 13.9 | 0.01 | 0.04 | 0.04 | 91 | 1020.6 |
| 20260905085551 | 63 | 261 | 10.4 | 13.0 | 0.04 | 0.20 | 0.04 | 91 | 1022.0 |
| 20260905085459 | 63 | 272 | 9.6 | 13.0 | 0.04 | 0.20 | 0.04 | 91 | 1021.9 |
| 20260905085358 | 63 | 272 | 9.6 | 13.0 | 0.04 | 0.20 | 0.04 | 91 | 1021.9 |
| 20260905085300 | 63 | 259 | 10.4 | 13.0 | 0.04 | 0.20 | 0.04 | 91 | 1021.9 |
| 20260905085134 | 63 | 250 | 9.6 | 13.0 | 0.08 | 0.20 | 0.04 | 91 | 1021.9 |
| 20260905085036 | 63 | 253 | 9.6 | 13.0 | 0.08 | 0.20 | 0.04 | 91 | 1022.0 |
| 20260905085009 | 62 | 249 | 8.7 | 13.0 | 0.02 | 0.04 | 0.04 | 91 | 1020.5 |
| 20260905084926 | 63 | 255 | 9.6 | 13.0 | 0.08 | 0.20 | 0.04 | 91 | 1021.9 |
| 20260905084811 | 63 | 260 | 10.4 | 13.9 | 0.08 | 0.20 | 0.04 | 91 | 1021.9 |
| 20260905084712 | 62 | 234 | 10.4 | 13.9 | 0.08 | 0.20 | 0.04 | 91 | 1021.8 |
| 20260905084646 | 62 | 273 | 9.6 | 13.9 | 0.02 | 0.04 | 0.04 | 91 | 1020.5 |
| 20260905084605 | 63 | 257 | 9.6 | 13.9 | 0.08 | 0.20 | 0.04 | 91 | 1021.8 |
| 20260905084509 | 63 | 261 | 9.6 | 13.9 | 0.08 | 0.20 | 0.04 | 91 | 1021.8 |
| 20260905084408 | 62 | 255 | 8.7 | 13.9 | 0.08 | 0.20 | 0.04 | 91 | 1021.8 |
| 20260905084301 | 62 | 261 | 8.7 | 13.9 | 0.08 | 0.20 | 0.04 | 91 | 1021.9 |
| 20260905084203 | 63 | 246 | 9.6 | 13.9 | 0.12 | 0.20 | 0.04 | 91 | 1021.9 |
| 20260905084110 | 63 | 243 | 10.4 | 13.9 | 0.12 | 0.20 | 0.04 | 91 | 1021.9 |
| 20260905084034 | 62 | 243 | 9.6 | 13.9 | 0.02 | 0.04 | 0.04 | 91 | 1020.5 |
| 20260905084003 | 63 | 237 | 9.6 | 13.9 | 0.12 | 0.20 | 0.04 | 91 | 1022.0 |
| 20260905083902 | 63 | 252 | 8.7 | 13.0 | 0.12 | 0.20 | 0.04 | 91 | 1022.0 |
| 20260905083741 | 63 | 254 | 9.6 | 13.0 | 0.12 | 0.20 | 0.04 | 91 | 1022.1 |
| 20260905083635 | 63 | 265 | 8.7 | 13.0 | 0.16 | 0.20 | 0.04 | 91 | 1022.1 |
| 20260905083405 | 63 | 261 | 8.7 | 10.4 | 0.20 | 0.20 | 0.04 | 91 | 1022.1 |
| 20260905083302 | 62 | 272 | 7.8 | 10.4 | 0.20 | 0.20 | 0.04 | 92 | 1022.1 |
| 20260905083143 | 62 | 270 | 7.0 | 10.4 | 0.20 | 0.20 | 0.04 | 91 | 1022.0 |
| 20260905083045 | 62 | 257 | 6.1 | 10.4 | 0.20 | 0.20 | 0.04 | 91 | 1021.9 |
| 20260905082949 | 62 | 265 | 6.1 | 10.4 | 0.20 | 0.20 | 0.04 | 91 | 1022.1 |
| 20260905082840 | 62 | 268 | 7.0 | 10.4 | 0.20 | 0.20 | 0.04 | 91 | 1022.0 |
| 20260905082722 | 62 | 252 | 7.0 | 10.4 | 0.20 | 0.20 | 0.04 | 91 | 1022.0 |
| 20260905082627 | 62 | 257 | 7.8 | 10.4 | 0.20 | 0.20 | 0.04 | 91 | 1022.0 |
| 20260905082601 | 62 | 263 | 7.0 | 10.4 | 0.04 | 0.04 | 0.04 | 91 | 1020.7 |
| 20260905082519 | 62 | 245 | 7.0 | 10.4 | 0.20 | 0.20 | 0.04 | 91 | 1022.1 |
| 20260905082422 | 62 | 243 | 7.0 | 8.7 | 0.20 | 0.20 | 0.04 | 91 | 1022.1 |
| 20260905082322 | 62 | 260 | 6.1 | 8.7 | 0.20 | 0.20 | 0.04 | 91 | 1022.1 |
| 20260905082214 | 62 | 257 | 4.3 | 6.1 | 0.20 | 0.20 | 0.04 | 91 | 1022.0 |
| 20260905082116 | 62 | 243 | 3.5 | 5.2 | 0.20 | 0.20 | 0.04 | 91 | 1022.0 |
| 20260905082018 | 62 | 231 | 3.5 | 5.2 | 0.20 | 0.20 | 0.04 | 91 | 1022.1 |
| 20260905081833 | 62 | 249 | 3.5 | 5.2 | 0.20 | 0.20 | 0.04 | 91 | 1022.0 |
| 20260905081735 | 62 | 239 | 3.5 | 5.2 | 0.20 | 0.20 | 0.04 | 91 | 1022.0 |
| 20260905081628 | 62 | 240 | 3.5 | 5.2 | 0.20 | 0.20 | 0.04 | 91 | 1022.0 |
| 20260905081528 | 62 | 249 | 2.6 | 3.5 | 0.20 | 0.20 | 0.04 | 90 | 1022.0 |
| 20260905081431 | 62 | 255 | 2.6 | 3.5 | 0.20 | 0.20 | 0.04 | 90 | 1021.9 |
| 20260905081319 | 62 | 257 | 0.9 | 3.5 | 0.16 | 0.16 | 0.03 | 90 | 1021.9 |
| 20260905081142 | 62 | 257 | 0.9 | 3.5 | 0.16 | 0.16 | 0.03 | 90 | 1022.0 |
| 20260905081044 | 62 | 257 | 0.9 | 3.5 | 0.16 | 0.16 | 0.03 | 90 | 1022.0 |
| 20260905081008 | 62 | 257 | 0.9 | 3.5 | 0.03 | 0.03 | 0.03 | 90 | 1020.7 |
| 20260905080934 | 62 | 257 | 1.7 | 3.5 | 0.16 | 0.16 | 0.03 | 89 | 1022.2 |
| 20260905080814 | 62 | 257 | 1.7 | 3.5 | 0.16 | 0.16 | 0.03 | 89 | 1022.1 |
| 20260905080717 | 62 | 257 | 1.7 | 3.5 | 0.16 | 0.16 | 0.03 | 89 | 1022.2 |
| 20260905080644 | 62 | 257 | 1.7 | 3.5 | 0.03 | 0.03 | 0.03 | 89 | 1020.7 |
| 20260905080609 | 63 | 257 | 2.6 | 3.5 | 0.16 | 0.16 | 0.03 | 89 | 1022.2 |
| 20260905080516 | 63 | 257 | 1.7 | 3.5 | 0.16 | 0.16 | 0.03 | 89 | 1022.1 |
| 20260905080414 | 63 | 259 | 0.9 | 2.6 | 0.16 | 0.16 | 0.03 | 89 | 1022.2 |
| 20260905080306 | 62 | 259 | 0.0 | 3.5 | 0.16 | 0.16 | 0.03 | 89 | 1022.2 |
| 20260905080206 | 62 | 259 | 0.0 | 3.5 | 0.16 | 0.16 | 0.03 | 89 | 1022.2 |
| 20260905080108 | 62 | 259 | 0.0 | 3.5 | 0.16 | 0.16 | 0.03 | 89 | 1022.2 |
| 20260905080031 | 62 | 259 | 0.0 | 3.5 | 0.03 | 0.03 | 0.03 | 89 | 1020.7 |
| 20260905080000 | 62 | 259 | 0.9 | 3.5 | 0.16 | 0.16 | 0.03 | 89 | 1022.2 |
| 20260905075858 | 62 | 259 | 0.9 | 3.5 | 0.16 | 0.16 | 0.03 | 89 | 1022.2 |
| 20260905075804 | 62 | 259 | 0.9 | 3.5 | 0.16 | 0.16 | 0.03 | 89 | 1022.2 |
| 20260905075707 | 62 | 259 | 1.7 | 3.5 | 0.16 | 0.16 | 0.03 | 88 | 1022.2 |
| 20260905075620 | 62 | 259 | 1.7 | 3.5 | 0.03 | 0.03 | 0.03 | 88 | 1020.8 |
| 20260905075539 | 62 | 259 | 1.7 | 3.5 | 0.16 | 0.16 | 0.03 | 88 | 1022.2 |
| 20260905075440 | 62 | 259 | 1.7 | 2.6 | 0.16 | 0.16 | 0.03 | 88 | 1022.2 |
| 20260905075341 | 62 | 259 | 1.7 | 2.6 | 0.16 | 0.16 | 0.03 | 87 | 1022.2 |
| 20260905075212 | 63 | 259 | 1.7 | 2.6 | 0.12 | 0.12 | 0.02 | 87 | 1022.2 |
| 20260905075119 | 63 | 259 | 0.9 | 2.6 | 0.12 | 0.12 | 0.02 | 87 | 1022.2 |
| 20260905075021 | 63 | 259 | 1.7 | 2.6 | 0.12 | 0.12 | 0.02 | 87 | 1022.2 |
| 20260905074832 | 63 | 259 | 1.7 | 3.5 | 0.12 | 0.12 | 0.02 | 86 | 1022.2 |
| 20260905074735 | 63 | 259 | 0.9 | 3.5 | 0.12 | 0.12 | 0.02 | 86 | 1022.2 |
| 20260905074626 | 63 | 259 | 0.9 | 3.5 | 0.12 | 0.12 | 0.02 | 85 | 1022.2 |
| 20260905074529 | 63 | 259 | 1.7 | 3.5 | 0.12 | 0.12 | 0.02 | 85 | 1022.2 |
| 20260905074412 | 63 | 259 | 1.7 | 3.5 | 0.12 | 0.12 | 0.02 | 85 | 1022.2 |
| 20260905074303 | 63 | 259 | 1.7 | 3.5 | 0.12 | 0.12 | 0.02 | 84 | 1022.2 |
| 20260905074204 | 63 | 259 | 2.6 | 3.5 | 0.08 | 0.08 | 0.02 | 84 | 1022.2 |
| 20260905074107 | 63 | 259 | 2.6 | 3.5 | 0.08 | 0.08 | 0.02 | 84 | 1022.2 |
| 20260905074030 | 63 | 259 | 2.6 | 3.5 | 0.02 | 0.02 | 0.02 | 84 | 1020.8 |
| 20260905074000 | 63 | 259 | 2.6 | 3.5 | 0.08 | 0.08 | 0.02 | 83 | 1022.2 |
| 20260905073838 | 63 | 259 | 2.6 | 3.5 | 0.08 | 0.08 | 0.02 | 83 | 1022.2 |
| 20260905073739 | 63 | 259 | 2.6 | 3.5 | 0.08 | 0.08 | 0.02 | 82 | 1022.2 |
| 20260905073643 | 63 | 259 | 2.6 | 3.5 | 0.04 | 0.04 | 0.01 | 82 | 1022.2 |
| 20260905073621 | 63 | 258 | 1.7 | 3.5 | 0.01 | 0.01 | 0.01 | 82 | 1020.8 |
| 20260905073536 | 63 | 257 | 0.9 | 3.5 | 0.04 | 0.04 | 0.01 | 81 | 1022.1 |
| 20260905073415 | 63 | 257 | 0.0 | 0.0 | 0.00 | 0.00 | 0.00 | 81 | 1022.1 |
| 20260905073318 | 63 | 257 | 0.0 | 0.0 | 0.00 | 0.00 | 0.00 | 81 | 1022.0 |
| 20260905073210 | 63 | 257 | 0.0 | 0.0 | 0.00 | 0.00 | 0.00 | 81 | 1022.1 |
| 20260905073111 | 63 | 257 | 0.0 | 0.0 | 0.00 | 0.00 | 0.00 | 80 | 1022.0 |
| 20260905072956 | 63 | 257 | 0.0 | 0.0 | 0.00 | 0.00 | 0.00 | 80 | 1022.1 |
| 20260905072847 | 63 | 257 | 0.0 | 0.0 | 0.00 | 0.00 | 0.00 | 80 | 1022.0 |
| 20260905072750 | 63 | 257 | 0.0 | 0.0 | 0.00 | 0.00 | 0.00 | 80 | 1021.9 |
| 20260905072630 | 63 | 257 | 0.0 | 0.0 | 0.00 | 0.00 | 0.00 | 80 | 1021.8 |
| 20260905072602 | 63 | 257 | 0.0 | 0.0 | 0.00 | 0.00 | 0.00 | 80 | 1020.4 |
| 20260905072523 | 63 | 257 | 0.0 | 0.0 | 0.00 | 0.00 | 0.00 | 80 | 1021.8 |
| 20260905072425 | 63 | 257 | 0.0 | 0.0 | 0.00 | 0.00 | 0.00 | 80 | 1021.8 |
| 20260905072325 | 63 | 257 | 0.0 | 0.0 | 0.00 | 0.00 | 0.00 | 79 | 1021.8 |
| 20260905072210 | 63 | 257 | 0.0 | 0.0 | 0.00 | 0.00 | 0.00 | 79 | 1021.8 |
| 20260905072147 | 63 | 257 | 0.0 | 0.0 | 0.00 | 0.00 | 0.00 | 79 | 1020.4 |
| 20260905072102 | 63 | 257 | 0.0 | 0.0 | 0.00 | 0.00 | 0.00 | 79 | 1021.9 |
| 20260905072005 | 63 | 257 | 0.0 | 0.0 | 0.00 | 0.00 | 0.00 | 80 | 1021.9 |
| 20260905071906 | 63 | 257 | 0.0 | 0.0 | 0.00 | 0.00 | 0.00 | 80 | 1021.8 |
| 20260905071758 | 63 | 257 | 0.0 | 0.0 | 0.00 | 0.00 | 0.00 | 80 | 1021.8 |
| 20260905071657 | 63 | 257 | 0.0 | 0.0 | 0.00 | 0.00 | 0.00 | 80 | 1021.8 |
| 20260905071545 | 63 | 257 | 0.0 | 0.0 | 0.00 | 0.00 | 0.00 | 80 | 1021.8 |
| 20260905071412 | 63 | 257 | 0.0 | 0.0 | 0.00 | 0.00 | 0.00 | 79 | 1021.8 |
| 20260905071253 | 63 | 257 | 0.0 | 0.0 | 0.00 | 0.00 | 0.00 | 79 | 1021.8 |
| 20260905071154 | 63 | 257 | 0.0 | 0.0 | 0.00 | 0.00 | 0.00 | 79 | 1021.8 |
| 20260905071127 | 63 | 257 | 0.0 | 0.0 | 0.00 | 0.00 | 0.00 | 79 | 1020.4 |
| 20260905071047 | 63 | 257 | 0.0 | 0.0 | 0.00 | 0.00 | 0.00 | 79 | 1021.8 |
| 20260905070950 | 63 | 257 | 0.0 | 0.0 | 0.00 | 0.00 | 0.00 | 79 | 1021.8 |
| 20260905070849 | 63 | 257 | 0.0 | 0.0 | 0.00 | 0.00 | 0.00 | 80 | 1021.8 |
| 20260905070745 | 63 | 257 | 0.0 | 0.0 | 0.00 | 0.00 | 0.00 | 81 | 1021.8 |
| 20260905070648 | 63 | 257 | 0.0 | 0.0 | 0.00 | 0.00 | 0.00 | 81 | 1021.9 |
| 20260905070549 | 63 | 257 | 0.0 | 0.0 | 0.00 | 0.00 | 0.00 | 80 | 1022.1 |
| 20260905070520 | 63 | 257 | 0.0 | 0.0 | 0.00 | 0.00 | 0.00 | 81 | 1020.6 |
| 20260905070444 | 63 | 257 | 0.0 | 0.0 | 0.00 | 0.00 | 0.00 | 81 | 1022.2 |
| 20260905070343 | 63 | 257 | 0.0 | 0.0 | 0.00 | 0.00 | 0.00 | 80 | 1022.3 |
| 20260905070243 | 63 | 257 | 0.0 | 1.7 | 0.00 | 0.00 | 0.00 | 79 | 1022.2 |
| 20260905070141 | 63 | 257 | 0.0 | 1.7 | 0.00 | 0.00 | 0.00 | 79 | 1022.1 |
| 20260905070022 | 63 | 257 | 0.0 | 2.6 | 0.00 | 0.00 | 0.00 | 79 | 1022.1 |
| 20260905065900 | 63 | 257 | 0.0 | 2.6 | 0.00 | 0.00 | 0.00 | 79 | 1022.1 |
| 20260905065751 | 63 | 257 | 0.0 | 2.6 | 0.00 | 0.00 | 0.00 | 79 | 1022.1 |
| 20260905065653 | 63 | 257 | 0.0 | 2.6 | 0.00 | 0.00 | 0.00 | 79 | 1022.2 |
| 20260905065556 | 63 | 257 | 0.0 | 2.6 | 0.00 | 0.00 | 0.00 | 79 | 1022.2 |
| 20260905065529 | 63 | 257 | 0.0 | 2.6 | 0.00 | 0.00 | 0.00 | 79 | 1020.7 |
| 20260905065449 | 63 | 257 | 0.9 | 2.6 | 0.00 | 0.00 | 0.00 | 79 | 1022.2 |
| 20260905065334 | 63 | 257 | 1.7 | 2.6 | 0.00 | 0.00 | 0.00 | 79 | 1022.1 |
| 20260905065057 | 63 | 257 | 0.0 | 1.7 | 0.00 | 0.00 | 0.00 | 77 | 1021.9 |
| 20260905064937 | 63 | 257 | 0.0 | 3.5 | 0.00 | 0.00 | 0.00 | 77 | 1021.9 |
| 20260905064827 | 63 | 257 | 0.0 | 4.3 | 0.00 | 0.00 | 0.00 | 75 | 1021.9 |
| 20260905064648 | 63 | 257 | 0.0 | 4.3 | 0.00 | 0.00 | 0.00 | 75 | 1021.9 |
| 20260905064518 | 63 | 257 | 0.0 | 4.3 | 0.00 | 0.00 | 0.00 | 75 | 1020.4 |
| 20260905064445 | 63 | 257 | 0.9 | 4.3 | 0.00 | 0.00 | 0.00 | 75 | 1021.8 |
| 20260905064345 | 63 | 257 | 1.7 | 4.3 | 0.00 | 0.00 | 0.00 | 76 | 1021.7 |
| 20260905064246 | 63 | 257 | 2.6 | 4.3 | 0.00 | 0.00 | 0.00 | 76 | 1021.6 |
| 20260905064139 | 63 | 257 | 2.6 | 4.3 | 0.00 | 0.00 | 0.00 | 77 | 1021.5 |
| 20260905064041 | 64 | 257 | 3.5 | 4.3 | 0.00 | 0.00 | 0.00 | 78 | 1021.5 |
| 20260905063922 | 64 | 236 | 3.5 | 4.3 | 0.00 | 0.00 | 0.00 | 78 | 1021.4 |
| 20260905063825 | 64 | 236 | 2.6 | 4.3 | 0.00 | 0.00 | 0.00 | 78 | 1021.4 |
| 20260905063720 | 64 | 245 | 2.6 | 3.5 | 0.00 | 0.00 | 0.00 | 77 | 1021.4 |
| 20260905063620 | 64 | 256 | 2.6 | 3.5 | 0.00 | 0.00 | 0.00 | 77 | 1021.4 |
| 20260905063523 | 64 | 257 | 2.6 | 3.5 | 0.00 | 0.00 | 0.00 | 77 | 1021.4 |
| 20260905063352 | 64 | 257 | 1.7 | 2.6 | 0.00 | 0.00 | 0.00 | 76 | 1021.4 |
| 20260905063255 | 64 | 257 | 1.7 | 4.3 | 0.00 | 0.00 | 0.00 | 76 | 1021.5 |
| 20260905063159 | 64 | 257 | 0.9 | 4.3 | 0.00 | 0.00 | 0.00 | 75 | 1021.5 |
| 20260905063127 | 63 | 257 | 0.9 | 4.3 | 0.00 | 0.00 | 0.00 | 75 | 1020.1 |
| 20260905063052 | 64 | 257 | 0.9 | 4.3 | 0.00 | 0.00 | 0.00 | 75 | 1021.5 |
| 20260905062955 | 64 | 257 | 0.0 | 4.3 | 0.00 | 0.00 | 0.00 | 75 | 1021.5 |
| 20260905062853 | 64 | 257 | 0.0 | 6.1 | 0.00 | 0.00 | 0.00 | 75 | 1021.5 |
| 20260905062724 | 64 | 257 | 0.9 | 6.1 | 0.00 | 0.00 | 0.00 | 75 | 1021.4 |
| 20260905062604 | 64 | 257 | 1.7 | 7.8 | 0.00 | 0.00 | 0.00 | 74 | 1021.4 |
| 20260905062508 | 64 | 257 | 2.6 | 7.8 | 0.00 | 0.00 | 0.00 | 74 | 1021.4 |
| 20260905062402 | 64 | 242 | 2.6 | 7.8 | 0.00 | 0.00 | 0.00 | 74 | 1021.3 |
| 20260905062306 | 64 | 238 | 2.6 | 7.8 | 0.00 | 0.00 | 0.00 | 74 | 1021.2 |
| 20260905062125 | 64 | 240 | 4.3 | 7.8 | 0.00 | 0.00 | 0.00 | 73 | 1021.1 |
| 20260905062028 | 64 | 265 | 4.3 | 7.8 | 0.00 | 0.00 | 0.00 | 73 | 1021.1 |
| 20260905062004 | 64 | 264 | 4.3 | 7.8 | 0.00 | 0.00 | 0.00 | 73 | 1019.9 |
| 20260905061918 | 65 | 245 | 5.2 | 7.8 | 0.00 | 0.00 | 0.00 | 73 | 1021.5 |
| 20260905061818 | 65 | 247 | 3.5 | 7.8 | 0.00 | 0.00 | 0.00 | 72 | 1021.5 |
| 20260905061723 | 65 | 289 | 0.9 | 6.1 | 0.00 | 0.00 | 0.00 | 72 | 1021.4 |
| 20260905061640 | 64 | 289 | 0.0 | 6.1 | 0.00 | 0.00 | 0.00 | 72 | 1019.9 |
| 20260905061555 | 65 | 289 | 0.9 | 6.1 | 0.00 | 0.00 | 0.00 | 71 | 1021.4 |
| 20260905061437 | 65 | 306 | 0.9 | 7.0 | 0.00 | 0.00 | 0.00 | 71 | 1021.6 |
| 20260905061316 | 65 | 306 | 1.7 | 7.0 | 0.00 | 0.00 | 0.00 | 71 | 1022.4 |
| 20260905061206 | 65 | 286 | 2.6 | 7.0 | 0.00 | 0.00 | 0.00 | 71 | 1022.6 |
| 20260905061108 | 65 | 275 | 4.3 | 7.0 | 0.00 | 0.00 | 0.00 | 71 | 1022.7 |
| 20260905061011 | 65 | 274 | 2.6 | 7.0 | 0.00 | 0.00 | 0.00 | 70 | 1022.6 |
| 20260905060845 | 65 | 312 | 2.6 | 7.0 | 0.00 | 0.00 | 0.00 | 70 | 1022.3 |
| 20260905060724 | 65 | 30 | 3.5 | 7.0 | 0.00 | 0.00 | 0.00 | 69 | 1021.8 |
| 20260905060606 | 65 | 31 | 1.7 | 7.0 | 0.00 | 0.00 | 0.00 | 69 | 1021.9 |
| 20260905060538 | 65 | 68 | 0.9 | 7.0 | 0.00 | 0.00 | 0.00 | 69 | 1020.5 |
| 20260905060458 | 65 | 70 | 0.0 | 3.5 | 0.00 | 0.00 | 0.00 | 69 | 1022.0 |
| 20260905060357 | 65 | 70 | 0.9 | 3.5 | 0.00 | 0.00 | 0.00 | 69 | 1021.8 |
| 20260905060259 | 65 | 57 | 1.7 | 3.5 | 0.00 | 0.00 | 0.00 | 69 | 1021.5 |
| 20260905060027 | 65 | 64 | 1.7 | 6.1 | 0.00 | 0.00 | 0.00 | 68 | 1021.2 |
| 20260905055904 | 65 | 65 | 1.7 | 6.1 | 0.00 | 0.00 | 0.00 | 68 | 1021.1 |
| 20260905055758 | 65 | 76 | 0.9 | 6.1 | 0.00 | 0.00 | 0.00 | 67 | 1021.0 |
| 20260905055700 | 65 | 76 | 0.9 | 6.1 | 0.00 | 0.00 | 0.00 | 67 | 1021.0 |
| 20260905055601 | 66 | 76 | 1.7 | 6.1 | 0.00 | 0.00 | 0.00 | 67 | 1020.8 |
| 20260905055530 | 65 | 76 | 2.6 | 6.1 | 0.00 | 0.00 | 0.00 | 67 | 1019.3 |
| 20260905055434 | 66 | 95 | 3.5 | 6.1 | 0.00 | 0.00 | 0.00 | 67 | 1020.5 |
| 20260905055337 | 66 | 100 | 3.5 | 9.6 | 0.00 | 0.00 | 0.00 | 67 | 1020.3 |
| 20260905055216 | 66 | 66 | 3.5 | 9.6 | 0.00 | 0.00 | 0.00 | 66 | 1020.4 |
| 20260905055057 | 66 | 55 | 3.5 | 9.6 | 0.00 | 0.00 | 0.00 | 66 | 1020.4 |
| 20260905055033 | 65 | 78 | 2.6 | 9.6 | 0.00 | 0.00 | 0.00 | 66 | 1019.0 |
| 20260905054948 | 66 | 100 | 2.6 | 9.6 | 0.00 | 0.00 | 0.00 | 67 | 1020.4 |
| 20260905054848 | 66 | 97 | 2.6 | 9.6 | 0.00 | 0.00 | 0.00 | 66 | 1020.4 |
| 20260905054751 | 66 | 89 | 2.6 | 9.6 | 0.00 | 0.00 | 0.00 | 66 | 1020.5 |
| 20260905054645 | 66 | 22 | 3.5 | 9.6 | 0.00 | 0.00 | 0.00 | 66 | 1020.6 |
| 20260905054552 | 66 | 317 | 3.5 | 10.4 | 0.00 | 0.00 | 0.00 | 66 | 1020.7 |
| 20260905054454 | 66 | 16 | 2.6 | 13.0 | 0.00 | 0.00 | 0.00 | 65 | 1020.8 |
| 20260905054325 | 66 | 62 | 3.5 | 13.0 | 0.00 | 0.00 | 0.00 | 65 | 1020.9 |
| 20260905054226 | 66 | 66 | 4.3 | 13.0 | 0.00 | 0.00 | 0.00 | 65 | 1020.7 |
| 20260905054129 | 66 | 87 | 4.3 | 13.0 | 0.00 | 0.00 | 0.00 | 65 | 1020.6 |
| 20260905054101 | 66 | 97 | 3.5 | 13.0 | 0.00 | 0.00 | 0.00 | 65 | 1019.0 |
| 20260905054021 | 66 | 108 | 4.3 | 13.0 | 0.00 | 0.00 | 0.00 | 64 | 1020.5 |
| 20260905053928 | 66 | 82 | 5.2 | 13.0 | 0.00 | 0.00 | 0.00 | 64 | 1020.5 |
| 20260905053805 | 67 | 69 | 7.8 | 13.0 | 0.00 | 0.00 | 0.00 | 64 | 1020.3 |
| 20260905053658 | 67 | 68 | 5.2 | 13.0 | 0.00 | 0.00 | 0.00 | 64 | 1020.3 |
| 20260905053539 | 67 | 42 | 2.6 | 13.9 | 0.00 | 0.00 | 0.00 | 64 | 1020.3 |
| 20260905053418 | 67 | 78 | 1.7 | 13.9 | 0.00 | 0.00 | 0.00 | 64 | 1020.5 |
| 20260905053249 | 67 | 349 | 3.5 | 14.8 | 0.00 | 0.00 | 0.00 | 63 | 1020.5 |
| 20260905053152 | 67 | 85 | 4.3 | 14.8 | 0.00 | 0.00 | 0.00 | 63 | 1020.4 |
| 20260905053058 | 67 | 80 | 6.1 | 14.8 | 0.00 | 0.00 | 0.00 | 63 | 1020.2 |
| 20260905053002 | 67 | 32 | 6.1 | 14.8 | 0.00 | 0.00 | 0.00 | 63 | 1018.6 |
| 20260905052931 | 67 | 89 | 7.0 | 14.8 | 0.00 | 0.00 | 0.00 | 63 | 1020.1 |
| 20260905052808 | 67 | 35 | 9.6 | 14.8 | 0.00 | 0.00 | 0.00 | 63 | 1020.1 |
| 20260905052606 | 67 | 56 | 8.7 | 14.8 | 0.00 | 0.00 | 0.00 | 61 | 1018.5 |
| 20260905052532 | 68 | 68 | 8.7 | 14.8 | 0.00 | 0.00 | 0.00 | 60 | 1019.9 |
| 20260905052435 | 68 | 84 | 8.7 | 14.8 | 0.00 | 0.00 | 0.00 | 60 | 1019.9 |
| 20260905052333 | 68 | 70 | 8.7 | 14.8 | 0.00 | 0.00 | 0.00 | 60 | 1019.9 |
| 20260905052229 | 68 | 66 | 7.8 | 14.8 | 0.00 | 0.00 | 0.00 | 60 | 1019.8 |
| 20260905052110 | 68 | 95 | 7.8 | 14.8 | 0.00 | 0.00 | 0.00 | 60 | 1019.8 |
| 20260905052012 | 68 | 80 | 7.8 | 14.8 | 0.00 | 0.00 | 0.00 | 59 | 1019.8 |
| 20260905051914 | 68 | 80 | 8.7 | 14.8 | 0.00 | 0.00 | 0.00 | 59 | 1019.8 |
| 20260905051804 | 68 | 60 | 9.6 | 14.8 | 0.00 | 0.00 | 0.00 | 59 | 1019.7 |
| 20260905051706 | 68 | 65 | 7.8 | 14.8 | 0.00 | 0.00 | 0.00 | 59 | 1019.5 |
| 20260905051530 | 68 | 69 | 5.2 | 12.2 | 0.00 | 0.00 | 0.00 | 60 | 1019.4 |
| 20260905051515 | 68 | 80 | 4.3 | 12.2 | 0.00 | 0.00 | 0.00 | 60 | 1017.8 |
| 20260905051422 | 68 | 70 | 4.3 | 12.2 | 0.00 | 0.00 | 0.00 | 60 | 1019.2 |
| 20260905051321 | 68 | 73 | 4.3 | 12.2 | 0.00 | 0.00 | 0.00 | 60 | 1019.3 |
| 20260905051221 | 68 | 51 | 6.1 | 12.2 | 0.00 | 0.00 | 0.00 | 60 | 1019.3 |
| 20260905051135 | 68 | 66 | 7.0 | 12.2 | 0.00 | 0.00 | 0.00 | 60 | 1017.9 |
| 20260905051053 | 68 | 103 | 6.1 | 12.2 | 0.00 | 0.00 | 0.00 | 60 | 1019.3 |
| 20260905050823 | 68 | 60 | 3.5 | 7.8 | 0.00 | 0.00 | 0.00 | 61 | 1019.4 |
| 20260905050721 | 68 | 85 | 2.6 | 7.0 | 0.00 | 0.00 | 0.00 | 61 | 1019.5 |
| 20260905050623 | 68 | 22 | 3.5 | 7.0 | 0.00 | 0.00 | 0.00 | 61 | 1019.6 |
| 20260905050527 | 68 | 56 | 2.6 | 6.1 | 0.00 | 0.00 | 0.00 | 62 | 1019.6 |
| 20260905050417 | 68 | 46 | 2.6 | 6.1 | 0.00 | 0.00 | 0.00 | 62 | 1019.2 |
| 20260905050258 | 68 | 74 | 3.5 | 6.1 | 0.00 | 0.00 | 0.00 | 62 | 1019.1 |
| 20260905050155 | 68 | 53 | 3.5 | 6.1 | 0.00 | 0.00 | 0.00 | 63 | 1018.9 |
| 20260905050124 | 67 | 47 | 3.5 | 6.1 | 0.00 | 0.00 | 0.00 | 64 | 1017.4 |
| 20260905050049 | 68 | 73 | 3.5 | 5.2 | 0.00 | 0.00 | 0.00 | 64 | 1018.8 |
| 20260905045956 | 68 | 79 | 3.5 | 5.2 | 0.00 | 0.00 | 0.00 | 64 | 1018.8 |
| 20260905045856 | 68 | 45 | 2.6 | 5.2 | 0.00 | 0.00 | 0.00 | 64 | 1018.8 |
| 20260905045749 | 68 | 70 | 1.7 | 8.7 | 0.00 | 0.00 | 0.00 | 64 | 1018.8 |
| 20260905045652 | 68 | 31 | 1.7 | 8.7 | 0.00 | 0.00 | 0.00 | 65 | 1018.7 |
| 20260905045554 | 68 | 59 | 2.6 | 8.7 | 0.00 | 0.00 | 0.00 | 66 | 1018.6 |
| 20260905045427 | 68 | 84 | 2.6 | 8.7 | 0.00 | 0.00 | 0.00 | 67 | 1018.5 |
| 20260905045138 | 68 | 57 | 4.3 | 8.7 | 0.00 | 0.00 | 0.00 | 68 | 1018.4 |
| 20260905045102 | 67 | 89 | 4.3 | 8.7 | 0.00 | 0.00 | 0.00 | 68 | 1016.8 |
| 20260905045009 | 68 | 101 | 5.2 | 8.7 | 0.00 | 0.00 | 0.00 | 69 | 1018.2 |
| 20260905044908 | 68 | 107 | 4.3 | 7.8 | 0.00 | 0.00 | 0.00 | 72 | 1018.2 |
| 20260905044748 | 68 | 87 | 3.5 | 6.1 | 0.00 | 0.00 | 0.00 | 73 | 1018.2 |
| 20260905044654 | 67 | 85 | 2.6 | 5.2 | 0.00 | 0.00 | 0.00 | 73 | 1016.6 |
| 20260905044620 | 68 | 93 | 2.6 | 4.3 | 0.00 | 0.00 | 0.00 | 73 | 1018.1 |
| 20260905044522 | 68 | 91 | 2.6 | 3.5 | 0.00 | 0.00 | 0.00 | 72 | 1018.1 |
| 20260905044426 | 68 | 91 | 1.7 | 3.5 | 0.00 | 0.00 | 0.00 | 72 | 1018.1 |
| 20260905044256 | 68 | 91 | 1.7 | 5.2 | 0.00 | 0.00 | 0.00 | 71 | 1018.1 |
| 20260905044154 | 68 | 91 | 1.7 | 5.2 | 0.00 | 0.00 | 0.00 | 72 | 1018.1 |
| 20260905044036 | 68 | 91 | 1.7 | 5.2 | 0.00 | 0.00 | 0.00 | 72 | 1018.1 |
| 20260905043929 | 68 | 91 | 1.7 | 5.2 | 0.00 | 0.00 | 0.00 | 72 | 1018.0 |
| 20260905043830 | 68 | 91 | 1.7 | 5.2 | 0.00 | 0.00 | 0.00 | 72 | 1018.0 |
| 20260905043732 | 68 | 91 | 2.6 | 5.2 | 0.00 | 0.00 | 0.00 | 72 | 1018.0 |
| 20260905043617 | 68 | 91 | 2.6 | 5.2 | 0.00 | 0.00 | 0.00 | 71 | 1018.0 |
| 20260905043530 | 68 | 91 | 2.6 | 5.2 | 0.00 | 0.00 | 0.00 | 71 | 1016.5 |
| 20260905043449 | 68 | 89 | 2.6 | 5.2 | 0.00 | 0.00 | 0.00 | 71 | 1017.9 |
| 20260905043350 | 68 | 95 | 1.7 | 5.2 | 0.00 | 0.00 | 0.00 | 71 | 1017.9 |
| 20260905043250 | 68 | 63 | 0.9 | 5.2 | 0.00 | 0.00 | 0.00 | 71 | 1018.0 |
| 20260905043142 | 68 | 63 | 0.0 | 5.2 | 0.00 | 0.00 | 0.00 | 71 | 1018.0 |
| 20260905043044 | 68 | 63 | 0.0 | 5.2 | 0.00 | 0.00 | 0.00 | 71 | 1018.1 |
| 20260905042950 | 68 | 63 | 0.0 | 5.2 | 0.00 | 0.00 | 0.00 | 72 | 1018.1 |
| 20260905042841 | 68 | 63 | 2.6 | 5.2 | 0.00 | 0.00 | 0.00 | 71 | 1018.0 |
| 20260905042722 | 69 | 62 | 3.5 | 5.2 | 0.00 | 0.00 | 0.00 | 71 | 1018.0 |
| 20260905042624 | 69 | 52 | 2.6 | 8.7 | 0.00 | 0.00 | 0.00 | 72 | 1017.9 |
| 20260905042535 | 68 | 28 | 1.7 | 8.7 | 0.00 | 0.00 | 0.00 | 72 | 1016.4 |
| 20260905042456 | 69 | 78 | 2.6 | 10.4 | 0.00 | 0.00 | 0.00 | 72 | 1017.8 |
| 20260905042335 | 69 | 1 | 3.5 | 10.4 | 0.00 | 0.00 | 0.00 | 72 | 1017.8 |
| 20260905042234 | 69 | 72 | 2.6 | 10.4 | 0.00 | 0.00 | 0.00 | 72 | 1017.8 |
| 20260905042132 | 69 | 41 | 2.6 | 10.4 | 0.00 | 0.00 | 0.00 | 72 | 1017.7 |
| 20260905041902 | 69 | 52 | 4.3 | 10.4 | 0.00 | 0.00 | 0.00 | 71 | 1017.6 |
| 20260905041732 | 69 | 77 | 6.1 | 10.4 | 0.00 | 0.00 | 0.00 | 72 | 1017.4 |
| 20260905041634 | 69 | 73 | 6.1 | 10.4 | 0.00 | 0.00 | 0.00 | 71 | 1017.4 |
| 20260905041537 | 70 | 65 | 7.0 | 10.4 | 0.00 | 0.00 | 0.00 | 71 | 1017.4 |
| 20260905041406 | 70 | 74 | 7.0 | 10.4 | 0.00 | 0.00 | 0.00 | 71 | 1017.4 |
| 20260905041312 | 70 | 60 | 5.2 | 11.3 | 0.00 | 0.00 | 0.00 | 72 | 1017.5 |
| 20260905041211 | 70 | 76 | 2.6 | 11.3 | 0.00 | 0.00 | 0.00 | 72 | 1017.6 |
| 20260905041141 | 70 | 16 | 1.7 | 11.3 | 0.00 | 0.00 | 0.00 | 72 | 1016.1 |
| 20260905041104 | 70 | 48 | 2.6 | 11.3 | 0.00 | 0.00 | 0.00 | 72 | 1017.5 |
| 20260905041007 | 70 | 55 | 4.3 | 11.3 | 0.00 | 0.00 | 0.00 | 71 | 1017.3 |
| 20260905040906 | 70 | 62 | 5.2 | 11.3 | 0.00 | 0.00 | 0.00 | 70 | 1017.3 |
| 20260905040757 | 70 | 97 | 4.3 | 11.3 | 0.00 | 0.00 | 0.00 | 70 | 1017.3 |
| 20260905040702 | 70 | 110 | 6.1 | 11.3 | 0.00 | 0.00 | 0.00 | 71 | 1017.2 |
| 20260905040544 | 70 | 82 | 7.8 | 11.3 | 0.00 | 0.00 | 0.00 | 71 | 1017.2 |
| 20260905040508 | 70 | 83 | 7.0 | 11.3 | 0.00 | 0.00 | 0.00 | 71 | 1015.6 |
| 20260905040434 | 70 | 79 | 6.1 | 11.3 | 0.00 | 0.00 | 0.00 | 72 | 1017.3 |
| 20260905040146 | 70 | 99 | 5.2 | 11.3 | 0.00 | 0.00 | 0.00 | 73 | 1017.3 |
| 20260905040113 | 70 | 70 | 5.2 | 11.3 | 0.00 | 0.00 | 0.00 | 73 | 1015.6 |
| 20260905040040 | 70 | 87 | 6.1 | 11.3 | 0.00 | 0.00 | 0.00 | 73 | 1017.2 |
| 20260905035919 | 70 | 80 | 7.0 | 11.3 | 0.00 | 0.00 | 0.00 | 74 | 1017.2 |
| 20260905035826 | 70 | 75 | 8.7 | 11.3 | 0.00 | 0.00 | 0.00 | 76 | 1016.9 |
| 20260905035655 | 70 | 101 | 7.0 | 10.4 | 0.00 | 0.00 | 0.00 | 76 | 1016.9 |
| 20260905035538 | 70 | 99 | 6.1 | 10.4 | 0.00 | 0.00 | 0.00 | 76 | 1016.8 |
| 20260905035441 | 70 | 85 | 7.0 | 10.4 | 0.00 | 0.00 | 0.00 | 77 | 1016.5 |
| 20260905035331 | 70 | 80 | 5.2 | 10.4 | 0.00 | 0.00 | 0.00 | 79 | 1016.6 |
| 20260905035233 | 70 | 103 | 1.7 | 7.8 | 0.00 | 0.00 | 0.00 | 79 | 1016.8 |
| 20260905035135 | 70 | 6 | 1.7 | 7.8 | 0.00 | 0.00 | 0.00 | 79 | 1017.2 |
| 20260905035101 | 69 | 321 | 1.7 | 7.8 | 0.00 | 0.00 | 0.00 | 79 | 1016.1 |
| 20260905035033 | 70 | 311 | 3.5 | 7.8 | 0.00 | 0.00 | 0.00 | 79 | 1017.5 |
| 20260905034935 | 70 | 248 | 3.5 | 9.6 | 0.00 | 0.00 | 0.00 | 79 | 1017.6 |
| 20260905034835 | 70 | 265 | 3.5 | 9.6 | 0.00 | 0.00 | 0.00 | 79 | 1017.5 |
| 20260905034727 | 70 | 72 | 4.3 | 9.6 | 0.00 | 0.00 | 0.00 | 80 | 1017.3 |
| 20260905034627 | 70 | 96 | 4.3 | 9.6 | 0.00 | 0.00 | 0.00 | 80 | 1017.2 |
| 20260905034530 | 70 | 86 | 3.5 | 9.6 | 0.00 | 0.00 | 0.00 | 80 | 1017.2 |
| 20260905034413 | 70 | 85 | 4.3 | 9.6 | 0.00 | 0.00 | 0.00 | 80 | 1017.1 |
| 20260905034244 | 70 | 87 | 5.2 | 9.6 | 0.00 | 0.00 | 0.00 | 80 | 1017.0 |
| 20260905034124 | 70 | 104 | 7.0 | 9.6 | 0.00 | 0.00 | 0.00 | 80 | 1017.0 |
| 20260905034026 | 70 | 57 | 5.2 | 8.7 | 0.00 | 0.00 | 0.00 | 80 | 1017.1 |
| 20260905034002 | 69 | 80 | 4.3 | 8.7 | 0.00 | 0.00 | 0.00 | 80 | 1015.5 |
| 20260905033917 | 70 | 60 | 4.3 | 7.8 | 0.00 | 0.00 | 0.00 | 80 | 1017.0 |
| 20260905033819 | 70 | 92 | 4.3 | 7.8 | 0.00 | 0.00 | 0.00 | 80 | 1016.8 |
| 20260905033709 | 70 | 58 | 4.3 | 7.8 | 0.00 | 0.00 | 0.00 | 80 | 1016.8 |
| 20260905033555 | 70 | 55 | 4.3 | 7.8 | 0.00 | 0.00 | 0.00 | 79 | 1016.7 |
| 20260905033458 | 70 | 66 | 3.5 | 6.1 | 0.00 | 0.00 | 0.00 | 79 | 1016.7 |
| 20260905033357 | 70 | 50 | 3.5 | 6.1 | 0.00 | 0.00 | 0.00 | 79 | 1016.6 |
| 20260905033249 | 70 | 52 | 3.5 | 6.1 | 0.00 | 0.00 | 0.00 | 79 | 1016.6 |
| 20260905033149 | 70 | 90 | 3.5 | 6.1 | 0.00 | 0.00 | 0.00 | 80 | 1016.5 |
| 20260905033051 | 70 | 55 | 3.5 | 4.3 | 0.00 | 0.00 | 0.00 | 80 | 1016.6 |
| 20260905033029 | 69 | 60 | 2.6 | 4.3 | 0.00 | 0.00 | 0.00 | 80 | 1015.1 |
| 20260905032948 | 70 | 37 | 3.5 | 4.3 | 0.00 | 0.00 | 0.00 | 80 | 1016.5 |
| 20260905032848 | 70 | 60 | 2.6 | 3.5 | 0.00 | 0.00 | 0.00 | 80 | 1016.6 |
| 20260905032728 | 70 | 45 | 0.9 | 3.5 | 0.00 | 0.00 | 0.00 | 81 | 1016.5 |
| 20260905032619 | 70 | 248 | 0.0 | 0.0 | 0.00 | 0.00 | 0.00 | 80 | 1016.5 |
| 20260905032523 | 70 | 248 | 0.0 | 0.0 | 0.00 | 0.00 | 0.00 | 80 | 1016.5 |
| 20260905032400 | 70 | 248 | 0.0 | 1.7 | 0.00 | 0.00 | 0.00 | 81 | 1016.4 |
| 20260905032254 | 70 | 248 | 0.0 | 1.7 | 0.00 | 0.00 | 0.00 | 81 | 1016.4 |
| 20260905032158 | 70 | 248 | 0.0 | 2.6 | 0.00 | 0.00 | 0.00 | 81 | 1016.4 |
| 20260905032100 | 70 | 248 | 0.0 | 3.5 | 0.00 | 0.00 | 0.00 | 80 | 1016.4 |
| 20260905032034 | 69 | 248 | 0.0 | 3.5 | 0.00 | 0.00 | 0.00 | 80 | 1014.9 |
| 20260905031954 | 70 | 248 | 0.0 | 3.5 | 0.00 | 0.00 | 0.00 | 80 | 1016.4 |
| 20260905031854 | 70 | 248 | 0.0 | 4.3 | 0.00 | 0.00 | 0.00 | 80 | 1016.4 |
| 20260905031756 | 70 | 248 | 0.0 | 4.3 | 0.00 | 0.00 | 0.00 | 81 | 1016.3 |
| 20260905031651 | 70 | 248 | 0.9 | 4.3 | 0.00 | 0.00 | 0.00 | 81 | 1016.3 |
| 20260905031611 | 70 | 248 | 1.7 | 6.1 | 0.00 | 0.00 | 0.00 | 81 | 1016.2 |
| 20260905031454 | 70 | 248 | 1.7 | 6.1 | 0.00 | 0.00 | 0.00 | 81 | 1016.2 |
| 20260905031353 | 70 | 248 | 1.7 | 6.1 | 0.00 | 0.00 | 0.00 | 81 | 1016.1 |
| 20260905030948 | 70 | 257 | 3.5 | 7.8 | 0.00 | 0.00 | 0.00 | 81 | 1016.0 |
| 20260905030840 | 70 | 263 | 3.5 | 7.8 | 0.00 | 0.00 | 0.00 | 81 | 1016.0 |
| 20260905030743 | 70 | 259 | 3.5 | 7.8 | 0.00 | 0.00 | 0.00 | 81 | 1015.9 |
| 20260905030627 | 70 | 261 | 4.3 | 7.8 | 0.00 | 0.00 | 0.00 | 81 | 1015.9 |
| 20260905030600 | 69 | 268 | 3.5 | 8.7 | 0.00 | 0.00 | 0.00 | 81 | 1014.4 |
| 20260905030519 | 70 | 279 | 4.3 | 8.7 | 0.00 | 0.00 | 0.00 | 81 | 1015.9 |
| 20260905030423 | 70 | 246 | 4.3 | 8.7 | 0.00 | 0.00 | 0.00 | 81 | 1015.9 |
| 20260905030301 | 70 | 245 | 5.2 | 8.7 | 0.00 | 0.00 | 0.00 | 81 | 1015.9 |
| 20260905030153 | 69 | 247 | 5.2 | 8.7 | 0.00 | 0.00 | 0.00 | 81 | 1016.0 |
| 20260905030056 | 69 | 244 | 5.2 | 8.7 | 0.00 | 0.00 | 0.00 | 81 | 1016.0 |
| 20260905025934 | 69 | 262 | 6.1 | 8.7 | 0.00 | 0.00 | 0.00 | 81 | 1015.9 |
| 20260905025811 | 69 | 253 | 6.1 | 8.7 | 0.00 | 0.00 | 0.00 | 81 | 1015.9 |
| 20260905025713 | 69 | 245 | 6.1 | 9.6 | 0.00 | 0.00 | 0.00 | 81 | 1015.8 |
| 20260905025615 | 69 | 245 | 6.1 | 8.7 | 0.00 | 0.00 | 0.00 | 81 | 1015.8 |
| 20260905025522 | 69 | 251 | 6.1 | 8.7 | 0.00 | 0.00 | 0.00 | 81 | 1014.3 |
| 20260905025316 | 69 | 251 | 6.1 | 7.8 | 0.00 | 0.00 | 0.00 | 81 | 1015.9 |
| 20260905025217 | 69 | 251 | 6.1 | 7.8 | 0.00 | 0.00 | 0.00 | 81 | 1015.8 |
| 20260905025129 | 68 | 240 | 5.2 | 8.7 | 0.00 | 0.00 | 0.00 | 81 | 1014.3 |
| 20260905025034 | 69 | 238 | 4.3 | 7.8 | 0.00 | 0.00 | 0.00 | 81 | 1015.8 |
| 20260905024938 | 69 | 251 | 5.2 | 7.8 | 0.00 | 0.00 | 0.00 | 80 | 1015.8 |
| 20260905024829 | 69 | 241 | 5.2 | 7.8 | 0.00 | 0.00 | 0.00 | 80 | 1015.8 |
| 20260905024711 | 69 | 238 | 6.1 | 7.8 | 0.00 | 0.00 | 0.00 | 80 | 1015.9 |
| 20260905024613 | 69 | 253 | 6.1 | 7.8 | 0.00 | 0.00 | 0.00 | 80 | 1015.8 |
| 20260905024600 | 69 | 251 | 6.1 | 7.8 | 0.00 | 0.00 | 0.00 | 79 | 1014.3 |
| 20260905024506 | 69 | 255 | 6.1 | 7.8 | 0.00 | 0.00 | 0.00 | 79 | 1015.8 |
| 20260905024324 | 69 | 253 | 6.1 | 7.8 | 0.00 | 0.00 | 0.00 | 79 | 1015.9 |
| 20260905024228 | 69 | 268 | 5.2 | 7.8 | 0.00 | 0.00 | 0.00 | 79 | 1015.8 |
| 20260905024131 | 69 | 270 | 5.2 | 7.8 | 0.00 | 0.00 | 0.00 | 79 | 1014.3 |
| 20260905024040 | 69 | 265 | 6.1 | 7.8 | 0.00 | 0.00 | 0.00 | 79 | 1015.8 |
| 20260905023939 | 70 | 270 | 6.1 | 7.8 | 0.00 | 0.00 | 0.00 | 79 | 1015.8 |
| 20260905023821 | 70 | 260 | 6.1 | 7.8 | 0.00 | 0.00 | 0.00 | 78 | 1015.8 |
| 20260905023603 | 70 | 252 | 5.2 | 8.7 | 0.00 | 0.00 | 0.00 | 78 | 1015.8 |
| 20260905023445 | 70 | 253 | 5.2 | 8.7 | 0.00 | 0.00 | 0.00 | 78 | 1015.6 |
| 20260905023348 | 70 | 252 | 6.1 | 9.6 | 0.00 | 0.00 | 0.00 | 77 | 1015.6 |
| 20260905023248 | 70 | 258 | 7.0 | 9.6 | 0.00 | 0.00 | 0.00 | 77 | 1015.5 |
| 20260905023141 | 70 | 245 | 7.0 | 12.2 | 0.00 | 0.00 | 0.00 | 77 | 1015.5 |
| 20260905023043 | 70 | 261 | 6.1 | 12.2 | 0.00 | 0.00 | 0.00 | 76 | 1015.5 |
| 20260905023005 | 69 | 247 | 6.1 | 12.2 | 0.00 | 0.00 | 0.00 | 76 | 1014.0 |
| 20260905022933 | 70 | 253 | 6.1 | 12.2 | 0.00 | 0.00 | 0.00 | 76 | 1015.5 |
| 20260905022814 | 70 | 246 | 7.0 | 12.2 | 0.00 | 0.00 | 0.00 | 76 | 1015.4 |
| 20260905022717 | 70 | 236 | 7.8 | 12.2 | 0.00 | 0.00 | 0.00 | 76 | 1015.5 |
| 20260905022624 | 70 | 236 | 7.0 | 12.2 | 0.00 | 0.00 | 0.00 | 75 | 1015.5 |
| 20260905022602 | 69 | 236 | 7.0 | 12.2 | 0.00 | 0.00 | 0.00 | 75 | 1014.0 |
| 20260905022515 | 70 | 245 | 7.8 | 12.2 | 0.00 | 0.00 | 0.00 | 75 | 1015.5 |
| 20260905022354 | 70 | 238 | 7.8 | 12.2 | 0.00 | 0.00 | 0.00 | 75 | 1015.5 |
| 20260905022257 | 70 | 247 | 7.8 | 10.4 | 0.00 | 0.00 | 0.00 | 75 | 1015.6 |
| 20260905022150 | 70 | 217 | 8.7 | 12.2 | 0.00 | 0.00 | 0.00 | 75 | 1015.5 |
| 20260905022053 | 70 | 259 | 7.8 | 15.6 | 0.00 | 0.00 | 0.00 | 74 | 1015.5 |
| 20260905021959 | 70 | 249 | 7.0 | 15.6 | 0.00 | 0.00 | 0.00 | 74 | 1015.5 |
| 20260905021849 | 70 | 247 | 6.1 | 16.5 | 0.00 | 0.00 | 0.00 | 74 | 1015.4 |
| 20260905021733 | 71 | 231 | 6.1 | 16.5 | 0.00 | 0.00 | 0.00 | 74 | 1015.4 |
| 20260905021653 | 71 | 238 | 6.1 | 16.5 | 0.00 | 0.00 | 0.00 | 74 | 1015.4 |
| 20260905021629 | 70 | 240 | 6.1 | 16.5 | 0.00 | 0.00 | 0.00 | 73 | 1013.9 |
| 20260905021547 | 71 | 236 | 7.0 | 16.5 | 0.00 | 0.00 | 0.00 | 72 | 1015.4 |
| 20260905021449 | 71 | 243 | 9.6 | 21.7 | 0.00 | 0.00 | 0.00 | 72 | 1015.3 |
| 20260905021326 | 71 | 240 | 11.3 | 21.7 | 0.00 | 0.00 | 0.00 | 71 | 1015.4 |
| 20260905021220 | 72 | 210 | 11.3 | 21.7 | 0.00 | 0.00 | 0.00 | 70 | 1015.3 |
| 20260905021123 | 72 | 247 | 10.4 | 21.7 | 0.00 | 0.00 | 0.00 | 69 | 1015.4 |
| 20260905021024 | 73 | 249 | 9.6 | 21.7 | 0.00 | 0.00 | 0.00 | 69 | 1015.4 |
| 20260905020853 | 73 | 250 | 10.4 | 21.7 | 0.00 | 0.00 | 0.00 | 68 | 1015.4 |
| 20260905020756 | 73 | 273 | 14.8 | 21.7 | 0.00 | 0.00 | 0.00 | 66 | 1015.4 |
| 20260905020616 | 73 | 235 | 16.5 | 21.7 | 0.00 | 0.00 | 0.00 | 63 | 1015.4 |
| 20260905020549 | 73 | 237 | 15.6 | 21.7 | 0.00 | 0.00 | 0.00 | 63 | 1014.0 |
| 20260905020513 | 74 | 265 | 14.8 | 20.9 | 0.00 | 0.00 | 0.00 | 62 | 1015.4 |
| 20260905020413 | 73 | 234 | 12.2 | 19.1 | 0.00 | 0.00 | 0.00 | 60 | 1015.6 |
| 20260905020316 | 73 | 236 | 10.4 | 13.0 | 0.00 | 0.00 | 0.00 | 60 | 1015.4 |
| 20260905020208 | 73 | 269 | 9.6 | 11.3 | 0.00 | 0.00 | 0.00 | 59 | 1015.3 |
| 20260905020109 | 73 | 249 | 9.6 | 11.3 | 0.00 | 0.00 | 0.00 | 59 | 1015.3 |
| 20260905015950 | 73 | 240 | 9.6 | 11.3 | 0.00 | 0.00 | 0.00 | 59 | 1015.3 |
| 20260905015840 | 73 | 267 | 7.8 | 10.4 | 0.00 | 0.00 | 0.00 | 59 | 1015.2 |
| 20260905015726 | 73 | 271 | 7.0 | 7.8 | 0.00 | 0.00 | 0.00 | 60 | 1015.2 |
| 20260905015629 | 73 | 259 | 6.1 | 7.0 | 0.00 | 0.00 | 0.00 | 60 | 1015.1 |
| 20260905015554 | 72 | 260 | 5.2 | 7.8 | 0.00 | 0.00 | 0.00 | 60 | 1013.6 |
| 20260905015523 | 73 | 266 | 5.2 | 7.0 | 0.00 | 0.00 | 0.00 | 60 | 1015.1 |
| 20260905015425 | 73 | 263 | 4.3 | 7.0 | 0.00 | 0.00 | 0.00 | 59 | 1015.0 |
| 20260905015325 | 73 | 252 | 3.5 | 7.0 | 0.00 | 0.00 | 0.00 | 59 | 1015.0 |
| 20260905015216 | 73 | 250 | 0.9 | 5.2 | 0.00 | 0.00 | 0.00 | 59 | 1015.0 |
| 20260905015122 | 73 | 309 | 0.0 | 4.3 | 0.00 | 0.00 | 0.00 | 59 | 1015.0 |
| 20260905015023 | 73 | 309 | 0.0 | 4.3 | 0.00 | 0.00 | 0.00 | 59 | 1014.9 |
| 20260905014853 | 73 | 309 | 0.0 | 4.3 | 0.00 | 0.00 | 0.00 | 59 | 1014.9 |
| 20260905014754 | 73 | 309 | 1.7 | 4.3 | 0.00 | 0.00 | 0.00 | 59 | 1015.0 |
| 20260905014656 | 73 | 322 | 2.6 | 4.3 | 0.00 | 0.00 | 0.00 | 59 | 1014.9 |
| 20260905014623 | 73 | 322 | 1.7 | 4.3 | 0.00 | 0.00 | 0.00 | 59 | 1013.5 |
| 20260905014550 | 73 | 309 | 2.6 | 4.3 | 0.00 | 0.00 | 0.00 | 59 | 1015.0 |
| 20260905014436 | 73 | 322 | 1.7 | 6.1 | 0.00 | 0.00 | 0.00 | 59 | 1015.0 |
| 20260905014326 | 73 | 334 | 0.9 | 6.1 | 0.00 | 0.00 | 0.00 | 58 | 1014.9 |
| 20260905014226 | 73 | 292 | 0.9 | 6.1 | 0.00 | 0.00 | 0.00 | 58 | 1015.0 |
| 20260905014127 | 73 | 292 | 1.7 | 6.1 | 0.00 | 0.00 | 0.00 | 58 | 1015.0 |
| 20260905014031 | 73 | 292 | 1.7 | 6.1 | 0.00 | 0.00 | 0.00 | 58 | 1013.5 |
| 20260905013958 | 74 | 286 | 1.7 | 6.1 | 0.00 | 0.00 | 0.00 | 58 | 1014.9 |
| 20260905013857 | 74 | 286 | 2.6 | 7.8 | 0.00 | 0.00 | 0.00 | 58 | 1014.9 |
| 20260905013759 | 74 | 286 | 2.6 | 7.8 | 0.00 | 0.00 | 0.00 | 58 | 1014.9 |
| 20260905013706 | 74 | 286 | 2.6 | 7.8 | 0.00 | 0.00 | 0.00 | 58 | 1014.8 |
| 20260905013644 | 73 | 283 | 1.7 | 7.8 | 0.00 | 0.00 | 0.00 | 58 | 1013.4 |
| 20260905013558 | 74 | 277 | 1.7 | 8.7 | 0.00 | 0.00 | 0.00 | 58 | 1014.8 |
| 20260905013415 | 74 | 277 | 2.6 | 9.6 | 0.00 | 0.00 | 0.00 | 58 | 1014.9 |
| 20260905013307 | 74 | 276 | 3.5 | 9.6 | 0.00 | 0.00 | 0.00 | 58 | 1014.8 |
| 20260905013150 | 74 | 274 | 4.3 | 9.6 | 0.00 | 0.00 | 0.00 | 58 | 1014.8 |
| 20260905013110 | 74 | 265 | 5.2 | 9.6 | 0.00 | 0.00 | 0.00 | 58 | 1014.8 |
| 20260905012951 | 74 | 268 | 6.1 | 9.6 | 0.00 | 0.00 | 0.00 | 58 | 1014.8 |
| 20260905012243 | 73 | 247 | 7.0 | 13.0 | 0.00 | 0.00 | 0.00 | 59 | 1014.7 |
| 20260905012145 | 73 | 270 | 7.8 | 13.0 | 0.00 | 0.00 | 0.00 | 59 | 1014.7 |
| 20260905012053 | 73 | 245 | 7.8 | 13.0 | 0.00 | 0.00 | 0.00 | 59 | 1013.2 |
| 20260905012016 | 73 | 241 | 9.6 | 13.0 | 0.00 | 0.00 | 0.00 | 59 | 1014.6 |
| 20260905011856 | 73 | 261 | 7.8 | 13.0 | 0.00 | 0.00 | 0.00 | 59 | 1014.6 |
| 20260905011757 | 73 | 270 | 7.0 | 13.0 | 0.00 | 0.00 | 0.00 | 59 | 1014.7 |
| 20260905011653 | 73 | 270 | 7.8 | 13.0 | 0.00 | 0.00 | 0.00 | 59 | 1014.6 |
| 20260905011535 | 73 | 251 | 8.7 | 13.0 | 0.00 | 0.00 | 0.00 | 59 | 1014.6 |
| 20260905011438 | 73 | 266 | 9.6 | 13.0 | 0.00 | 0.00 | 0.00 | 60 | 1014.6 |
| 20260905011328 | 73 | 245 | 8.7 | 13.0 | 0.00 | 0.00 | 0.00 | 60 | 1014.7 |
| 20260905011229 | 73 | 225 | 7.0 | 12.2 | 0.00 | 0.00 | 0.00 | 60 | 1014.7 |
| 20260905011049 | 73 | 243 | 6.1 | 9.6 | 0.00 | 0.00 | 0.00 | 60 | 1014.7 |
| 20260905011019 | 72 | 267 | 5.2 | 9.6 | 0.00 | 0.00 | 0.00 | 60 | 1013.2 |
| 20260905010945 | 73 | 259 | 6.1 | 9.6 | 0.00 | 0.00 | 0.00 | 60 | 1014.7 |
| 20260905010845 | 73 | 238 | 6.1 | 9.6 | 0.00 | 0.00 | 0.00 | 60 | 1014.7 |
| 20260905010746 | 73 | 249 | 6.1 | 9.6 | 0.00 | 0.00 | 0.00 | 60 | 1014.7 |
| 20260905010639 | 73 | 251 | 6.1 | 9.6 | 0.00 | 0.00 | 0.00 | 60 | 1014.7 |
| 20260905010540 | 73 | 256 | 5.2 | 10.4 | 0.00 | 0.00 | 0.00 | 60 | 1014.7 |
| 20260905010442 | 73 | 268 | 5.2 | 10.4 | 0.00 | 0.00 | 0.00 | 60 | 1014.7 |
| 20260905010334 | 73 | 262 | 7.0 | 10.4 | 0.00 | 0.00 | 0.00 | 60 | 1014.7 |
| 20260905010218 | 73 | 247 | 7.8 | 10.4 | 0.00 | 0.00 | 0.00 | 60 | 1014.7 |
| 20260905010120 | 72 | 255 | 7.8 | 10.4 | 0.00 | 0.00 | 0.00 | 60 | 1014.7 |
| 20260905010053 | 72 | 252 | 7.0 | 10.4 | 0.00 | 0.00 | 0.00 | 60 | 1013.3 |
| 20260905010016 | 72 | 253 | 7.0 | 10.4 | 0.00 | 0.00 | 0.00 | 60 | 1014.7 |
| 20260905005915 | 72 | 245 | 7.8 | 10.4 | 0.00 | 0.00 | 0.00 | 60 | 1014.8 |
| 20260905005818 | 72 | 250 | 7.0 | 9.6 | 0.00 | 0.00 | 0.00 | 60 | 1014.7 |
| 20260905005649 | 72 | 260 | 7.0 | 9.6 | 0.00 | 0.00 | 0.00 | 60 | 1014.8 |
| 20260905005555 | 72 | 265 | 7.0 | 9.6 | 0.00 | 0.00 | 0.00 | 60 | 1014.7 |
| 20260905005455 | 72 | 259 | 7.0 | 9.6 | 0.00 | 0.00 | 0.00 | 60 | 1014.7 |
| 20260905005357 | 72 | 253 | 7.0 | 9.6 | 0.00 | 0.00 | 0.00 | 60 | 1014.7 |
| 20260905005245 | 72 | 250 | 6.1 | 9.6 | 0.00 | 0.00 | 0.00 | 60 | 1014.7 |
| 20260905005147 | 72 | 253 | 5.2 | 10.4 | 0.00 | 0.00 | 0.00 | 60 | 1014.7 |
| 20260905005048 | 72 | 263 | 5.2 | 10.4 | 0.00 | 0.00 | 0.00 | 60 | 1014.6 |
| 20260905005028 | 72 | 263 | 5.2 | 10.4 | 0.00 | 0.00 | 0.00 | 60 | 1013.2 |
| 20260905004943 | 72 | 261 | 6.1 | 10.4 | 0.00 | 0.00 | 0.00 | 60 | 1014.6 |
| 20260905004827 | 72 | 255 | 6.1 | 10.4 | 0.00 | 0.00 | 0.00 | 61 | 1014.7 |
| 20260905004728 | 72 | 255 | 7.0 | 10.4 | 0.00 | 0.00 | 0.00 | 61 | 1014.6 |
| 20260905004659 | 72 | 274 | 6.1 | 10.4 | 0.00 | 0.00 | 0.00 | 61 | 1013.1 |
| 20260905004620 | 72 | 251 | 7.0 | 10.4 | 0.00 | 0.00 | 0.00 | 61 | 1014.6 |
| 20260905004521 | 72 | 256 | 7.0 | 10.4 | 0.00 | 0.00 | 0.00 | 61 | 1014.6 |
| 20260905004424 | 72 | 255 | 7.8 | 10.4 | 0.00 | 0.00 | 0.00 | 61 | 1014.6 |
| 20260905004312 | 72 | 265 | 7.0 | 10.4 | 0.00 | 0.00 | 0.00 | 62 | 1014.6 |
| 20260905004217 | 72 | 251 | 7.0 | 10.4 | 0.00 | 0.00 | 0.00 | 62 | 1014.5 |
| 20260905004119 | 72 | 259 | 7.0 | 10.4 | 0.00 | 0.00 | 0.00 | 62 | 1014.5 |
| 20260905004047 | 71 | 257 | 6.1 | 10.4 | 0.00 | 0.00 | 0.00 | 62 | 1013.0 |
| 20260905004013 | 72 | 261 | 5.2 | 10.4 | 0.00 | 0.00 | 0.00 | 62 | 1014.4 |
| 20260905003912 | 71 | 261 | 5.2 | 7.8 | 0.00 | 0.00 | 0.00 | 62 | 1014.5 |
| 20260905003814 | 71 | 250 | 4.3 | 7.8 | 0.00 | 0.00 | 0.00 | 62 | 1014.5 |
| 20260905003645 | 71 | 268 | 4.3 | 7.8 | 0.00 | 0.00 | 0.00 | 62 | 1014.5 |
| 20260905003546 | 71 | 264 | 4.3 | 7.8 | 0.00 | 0.00 | 0.00 | 62 | 1014.6 |
| 20260905003453 | 71 | 268 | 3.5 | 7.0 | 0.00 | 0.00 | 0.00 | 63 | 1014.6 |
| 20260905003323 | 71 | 271 | 4.3 | 7.0 | 0.00 | 0.00 | 0.00 | 63 | 1014.6 |
| 20260905003223 | 71 | 263 | 4.3 | 6.1 | 0.00 | 0.00 | 0.00 | 63 | 1014.6 |
| 20260905003104 | 71 | 262 | 3.5 | 6.1 | 0.00 | 0.00 | 0.00 | 63 | 1014.5 |
| 20260905003030 | 70 | 259 | 2.6 | 6.1 | 0.00 | 0.00 | 0.00 | 63 | 1013.1 |
| 20260905002957 | 71 | 272 | 3.5 | 6.1 | 0.00 | 0.00 | 0.00 | 63 | 1014.5 |
| 20260905002857 | 71 | 267 | 3.5 | 6.1 | 0.00 | 0.00 | 0.00 | 63 | 1014.6 |
| 20260905002802 | 71 | 269 | 3.5 | 6.1 | 0.00 | 0.00 | 0.00 | 63 | 1014.6 |
| 20260905002655 | 70 | 266 | 2.6 | 6.1 | 0.00 | 0.00 | 0.00 | 63 | 1014.6 |
| 20260905002535 | 70 | 280 | 2.6 | 6.1 | 0.00 | 0.00 | 0.00 | 63 | 1014.5 |
| 20260905002436 | 70 | 280 | 2.6 | 6.1 | 0.00 | 0.00 | 0.00 | 63 | 1014.5 |
| 20260905002325 | 70 | 280 | 3.5 | 6.1 | 0.00 | 0.00 | 0.00 | 63 | 1014.5 |
| 20260905002205 | 70 | 265 | 3.5 | 6.1 | 0.00 | 0.00 | 0.00 | 63 | 1014.5 |
| 20260905002107 | 70 | 288 | 1.7 | 3.5 | 0.00 | 0.00 | 0.00 | 63 | 1014.5 |
| 20260905001951 | 70 | 288 | 1.7 | 3.5 | 0.00 | 0.00 | 0.00 | 63 | 1014.5 |
| 20260905001841 | 70 | 288 | 1.7 | 5.2 | 0.00 | 0.00 | 0.00 | 63 | 1014.5 |
| 20260905001721 | 70 | 288 | 1.7 | 5.2 | 0.00 | 0.00 | 0.00 | 64 | 1014.5 |
| 20260905001644 | 70 | 288 | 1.7 | 7.0 | 0.00 | 0.00 | 0.00 | 64 | 1013.1 |
| 20260905001613 | 70 | 288 | 2.6 | 7.0 | 0.00 | 0.00 | 0.00 | 64 | 1014.5 |
| 20260905001434 | 70 | 288 | 3.5 | 7.0 | 0.00 | 0.00 | 0.00 | 64 | 1014.5 |
| 20260905001334 | 70 | 288 | 2.6 | 7.0 | 0.00 | 0.00 | 0.00 | 64 | 1014.5 |
| 20260905001206 | 70 | 288 | 2.6 | 7.0 | 0.00 | 0.00 | 0.00 | 64 | 1014.5 |
| 20260905001046 | 70 | 292 | 2.6 | 7.0 | 0.00 | 0.00 | 0.00 | 64 | 1014.4 |
| 20260905000948 | 69 | 278 | 4.3 | 7.0 | 0.00 | 0.00 | 0.00 | 65 | 1014.4 |
| 20260905000817 | 69 | 277 | 5.2 | 7.0 | 0.00 | 0.00 | 0.00 | 65 | 1014.4 |
| 20260905000719 | 69 | 284 | 4.3 | 7.0 | 0.00 | 0.00 | 0.00 | 66 | 1014.4 |
| 20260905000621 | 69 | 280 | 3.5 | 6.1 | 0.00 | 0.00 | 0.00 | 66 | 1014.3 |
| 20260905000559 | 68 | 274 | 2.6 | 5.2 | 0.00 | 0.00 | 0.00 | 66 | 1012.9 |
| 20260905000520 | 68 | 297 | 2.6 | 4.3 | 0.00 | 0.00 | 0.00 | 66 | 1014.3 |
| 20260905000419 | 68 | 294 | 2.6 | 5.2 | 0.00 | 0.00 | 0.00 | 66 | 1014.3 |
| 20260905000319 | 68 | 285 | 1.7 | 5.2 | 0.00 | 0.00 | 0.00 | 67 | 1014.3 |
| 20260905000211 | 68 | 288 | 0.0 | 2.6 | 0.00 | 0.00 | 0.00 | 67 | 1014.3 |
| 20260905000112 | 68 | 288 | 0.0 | 2.6 | 0.00 | 0.00 | 0.00 | 67 | 1014.2 |
| 20260905000016 | 68 | 288 | 0.0 | 2.6 | 0.00 | 0.00 | 0.00 | 67 | 1014.2 |
| 20260904235906 | 68 | 288 | 0.0 | 2.6 | 0.00 | 0.00 | 0.00 | 68 | 1014.2 |
| 20260904235812 | 68 | 288 | 0.0 | 3.5 | 0.00 | 0.00 | 0.00 | 67 | 1014.2 |
| 20260904235714 | 68 | 288 | 0.9 | 3.5 | 0.00 | 0.00 | 0.00 | 68 | 1014.3 |
| 20260904235636 | 67 | 288 | 0.9 | 3.5 | 0.00 | 0.00 | 0.00 | 68 | 1012.9 |
| 20260904235607 | 68 | 288 | 0.9 | 3.5 | 0.00 | 0.00 | 0.00 | 68 | 1014.2 |
| 20260904235449 | 67 | 288 | 0.9 | 3.5 | 0.00 | 0.00 | 0.00 | 69 | 1014.2 |
| 20260904235347 | 67 | 288 | 1.7 | 3.5 | 0.00 | 0.00 | 0.00 | 69 | 1014.2 |
| 20260904235238 | 67 | 288 | 1.7 | 3.5 | 0.00 | 0.00 | 0.00 | 69 | 1014.2 |
| 20260904235144 | 67 | 286 | 1.7 | 3.5 | 0.00 | 0.00 | 0.00 | 70 | 1014.3 |
| 20260904235024 | 67 | 287 | 1.7 | 3.5 | 0.00 | 0.00 | 0.00 | 70 | 1014.2 |
| 20260904234914 | 66 | 286 | 2.6 | 3.5 | 0.00 | 0.00 | 0.00 | 70 | 1014.2 |
| 20260904234816 | 66 | 285 | 2.6 | 3.5 | 0.00 | 0.00 | 0.00 | 70 | 1014.3 |
| 20260904234656 | 66 | 272 | 1.7 | 3.5 | 0.00 | 0.00 | 0.00 | 70 | 1014.2 |
| 20260904234617 | 66 | 261 | 0.9 | 2.6 | 0.00 | 0.00 | 0.00 | 71 | 1012.8 |
| 20260904234547 | 66 | 311 | 0.9 | 2.6 | 0.00 | 0.00 | 0.00 | 71 | 1014.2 |
| 20260904234448 | 66 | 75 | 0.0 | 1.7 | 0.00 | 0.00 | 0.00 | 71 | 1014.2 |
| 20260904234334 | 66 | 75 | 0.0 | 0.0 | 0.00 | 0.00 | 0.00 | 71 | 1014.2 |
| 20260904234223 | 66 | 75 | 0.0 | 0.0 | 0.00 | 0.00 | 0.00 | 72 | 1014.2 |
| 20260904234104 | 66 | 75 | 0.0 | 0.0 | 0.00 | 0.00 | 0.00 | 72 | 1014.2 |
| 20260904234008 | 66 | 75 | 0.0 | 0.0 | 0.00 | 0.00 | 0.00 | 71 | 1014.2 |
| 20260904233837 | 66 | 75 | 0.0 | 0.0 | 0.00 | 0.00 | 0.00 | 71 | 1014.2 |
| 20260904233738 | 66 | 75 | 0.0 | 0.0 | 0.00 | 0.00 | 0.00 | 71 | 1014.2 |
| 20260904233643 | 66 | 75 | 0.0 | 0.0 | 0.00 | 0.00 | 0.00 | 71 | 1014.2 |
| 20260904233617 | 65 | 75 | 0.0 | 0.0 | 0.00 | 0.00 | 0.00 | 71 | 1012.8 |
| 20260904233534 | 66 | 75 | 0.0 | 0.0 | 0.00 | 0.00 | 0.00 | 72 | 1014.2 |
| 20260904233437 | 66 | 75 | 0.0 | 0.0 | 0.00 | 0.00 | 0.00 | 72 | 1014.2 |
| 20260904233355 | 66 | 75 | 0.0 | 0.0 | 0.00 | 0.00 | 0.00 | 71 | 1014.2 |
| 20260904233257 | 66 | 75 | 0.0 | 0.0 | 0.00 | 0.00 | 0.00 | 72 | 1014.2 |
| 20260904233148 | 66 | 75 | 0.0 | 0.0 | 0.00 | 0.00 | 0.00 | 71 | 1014.2 |
| 20260904233051 | 66 | 75 | 0.0 | 0.0 | 0.00 | 0.00 | 0.00 | 72 | 1014.2 |
| 20260904232959 | 66 | 75 | 0.0 | 0.0 | 0.00 | 0.00 | 0.00 | 72 | 1014.2 |
| 20260904232916 | 66 | 75 | 0.0 | 0.0 | 0.00 | 0.00 | 0.00 | 72 | 1014.2 |
| 20260904232748 | 66 | 75 | 0.0 | 0.0 | 0.00 | 0.00 | 0.00 | 72 | 1014.2 |
| 20260904232651 | 66 | 75 | 0.0 | 0.0 | 0.00 | 0.00 | 0.00 | 72 | 1014.2 |
| 20260904232552 | 66 | 75 | 0.0 | 0.0 | 0.00 | 0.00 | 0.00 | 71 | 1014.2 |
| 20260904232527 | 65 | 75 | 0.0 | 1.7 | 0.00 | 0.00 | 0.00 | 71 | 1012.8 |
| 20260904232446 | 66 | 75 | 0.0 | 1.7 | 0.00 | 0.00 | 0.00 | 72 | 1014.1 |
| 20260904232326 | 66 | 75 | 0.0 | 1.7 | 0.00 | 0.00 | 0.00 | 72 | 1014.2 |
| 20260904232209 | 66 | 75 | 0.0 | 1.7 | 0.00 | 0.00 | 0.00 | 72 | 1014.2 |
| 20260904232142 | 65 | 75 | 0.0 | 1.7 | 0.00 | 0.00 | 0.00 | 72 | 1012.8 |
| 20260904232102 | 66 | 75 | 0.0 | 1.7 | 0.00 | 0.00 | 0.00 | 72 | 1014.2 |
| 20260904232005 | 66 | 75 | 0.0 | 1.7 | 0.00 | 0.00 | 0.00 | 72 | 1014.2 |
| 20260904231922 | 66 | 75 | 0.0 | 1.7 | 0.00 | 0.00 | 0.00 | 72 | 1014.1 |
| 20260904231803 | 66 | 75 | 0.0 | 1.7 | 0.00 | 0.00 | 0.00 | 72 | 1014.2 |
| 20260904231655 | 66 | 75 | 0.9 | 1.7 | 0.00 | 0.00 | 0.00 | 72 | 1014.2 |
| 20260904231536 | 66 | 75 | 0.0 | 1.7 | 0.00 | 0.00 | 0.00 | 72 | 1014.2 |
| 20260904231439 | 66 | 75 | 0.9 | 1.7 | 0.00 | 0.00 | 0.00 | 72 | 1014.2 |
| 20260904231311 | 66 | 75 | 0.9 | 1.7 | 0.00 | 0.00 | 0.00 | 72 | 1014.2 |
| 20260904231132 | 66 | 75 | 0.0 | 0.0 | 0.00 | 0.00 | 0.00 | 72 | 1014.2 |
| 20260904231107 | 65 | 75 | 0.0 | 0.0 | 0.00 | 0.00 | 0.00 | 73 | 1012.8 |
| 20260904231026 | 66 | 75 | 0.0 | 0.0 | 0.00 | 0.00 | 0.00 | 72 | 1014.2 |
| 20260904230928 | 66 | 75 | 0.0 | 0.0 | 0.00 | 0.00 | 0.00 | 72 | 1014.1 |
| 20260904230828 | 66 | 75 | 0.0 | 0.0 | 0.00 | 0.00 | 0.00 | 72 | 1014.2 |
| 20260904230705 | 66 | 75 | 0.0 | 0.0 | 0.00 | 0.00 | 0.00 | 72 | 1014.1 |
| 20260904230607 | 66 | 75 | 0.0 | 0.0 | 0.00 | 0.00 | 0.00 | 72 | 1014.2 |
| 20260904230508 | 66 | 75 | 0.0 | 0.0 | 0.00 | 0.00 | 0.00 | 72 | 1014.1 |
| 20260904230358 | 66 | 75 | 0.0 | 0.0 | 0.00 | 0.00 | 0.00 | 72 | 1014.1 |
| 20260904230259 | 66 | 75 | 0.0 | 0.0 | 0.00 | 0.00 | 0.00 | 72 | 1014.0 |
| 20260904230158 | 66 | 75 | 0.0 | 0.0 | 0.00 | 0.00 | 0.00 | 72 | 1014.0 |
| 20260904230134 | 65 | 75 | 0.0 | 0.0 | 0.00 | 0.00 | 0.00 | 72 | 1012.6 |
| 20260904230034 | 66 | 75 | 0.0 | 0.0 | 0.00 | 0.00 | 0.00 | 72 | 1014.0 |
| 20260904225936 | 65 | 75 | 0.0 | 0.0 | 0.00 | 0.00 | 0.00 | 72 | 1014.0 |
| 20260904225806 | 65 | 75 | 0.0 | 0.0 | 0.00 | 0.00 | 0.00 | 72 | 1014.0 |
| 20260904225541 | 65 | 75 | 0.0 | 0.0 | 0.00 | 0.00 | 0.00 | 72 | 1013.9 |
| 20260904225509 | 65 | 75 | 0.0 | 0.0 | 0.00 | 0.00 | 0.00 | 72 | 1012.5 |
| 20260904225410 | 65 | 75 | 0.0 | 0.9 | 0.00 | 0.00 | 0.00 | 72 | 1013.9 |
| 20260904225313 | 65 | 75 | 0.0 | 0.9 | 0.00 | 0.00 | 0.00 | 72 | 1013.9 |
| 20260904225217 | 65 | 75 | 0.0 | 0.9 | 0.00 | 0.00 | 0.00 | 73 | 1013.9 |
| 20260904225145 | 65 | 75 | 0.0 | 0.9 | 0.00 | 0.00 | 0.00 | 73 | 1012.5 |
| 20260904225110 | 65 | 75 | 0.0 | 0.9 | 0.00 | 0.00 | 0.00 | 72 | 1013.9 |
| 20260904225013 | 65 | 75 | 0.0 | 0.9 | 0.00 | 0.00 | 0.00 | 73 | 1013.9 |
| 20260904224851 | 65 | 75 | 0.0 | 0.9 | 0.00 | 0.00 | 0.00 | 72 | 1013.9 |
| 20260904224743 | 65 | 75 | 0.0 | 0.9 | 0.00 | 0.00 | 0.00 | 72 | 1013.9 |
| 20260904224644 | 65 | 75 | 0.0 | 0.0 | 0.00 | 0.00 | 0.00 | 72 | 1013.9 |
| 20260904224410 | 65 | 75 | 0.0 | 0.0 | 0.00 | 0.00 | 0.00 | 72 | 1013.9 |
| 20260904224240 | 65 | 75 | 0.0 | 0.0 | 0.00 | 0.00 | 0.00 | 72 | 1013.9 |
| 20260904224142 | 65 | 75 | 0.0 | 0.0 | 0.00 | 0.00 | 0.00 | 72 | 1013.9 |
| 20260904224043 | 65 | 75 | 0.0 | 0.0 | 0.00 | 0.00 | 0.00 | 72 | 1013.9 |
| 20260904224017 | 65 | 75 | 0.0 | 0.0 | 0.00 | 0.00 | 0.00 | 72 | 1012.5 |
| 20260904223938 | 65 | 75 | 0.0 | 0.0 | 0.00 | 0.00 | 0.00 | 72 | 1013.8 |
| 20260904223843 | 65 | 75 | 0.0 | 0.0 | 0.00 | 0.00 | 0.00 | 72 | 1013.9 |
| 20260904223744 | 65 | 75 | 0.0 | 0.0 | 0.00 | 0.00 | 0.00 | 72 | 1013.8 |
| 20260904223636 | 65 | 75 | 0.0 | 0.0 | 0.00 | 0.00 | 0.00 | 72 | 1013.8 |